Dirección General De Aeronáutica Civil

Dirección Meteorológica de Chile - Servicios Climáticos

Informe General de Control de Calidad de la Estación

Listado de niveles de control de calidad para algunos parámetros
Estación Quintero, Estación Aeronáutica (320025)
Fecha de Revisión de los datos :

Elementos

Registros Niveles de Control Total
Nivel 0 Nivel 1 Nivel 2 Nivel 3 Errores Porcentaje
01 Temperatura del Aire Seco 106.441 0 . 294 0.28 % 0 . 0 . 294 0.28 %
02 Temperatura de Rocío 94.029 1 0.00 % 0 . 0 . 0 . 1 0.00 %
03 Humedad Relativa del Aire 91.938 0 . 0 . 0 . 0 . 0 0.00 %
04 Temperatura Máxima PM 10.766 0 . 0 . 450 4.18 % 0 . 450 4.18 %
05 Temperatura Mínima AM 10.314 0 . 0 . 138 1.34 % 0 . 138 1.34 %
06 Viento a 10 m. de Altura 106.527 11 0.01 % 5 0.00 % 32 0.03 % 0 . 48 0.05 %
07 Agua Caida, Acumulada 6 Horas 33.110 0 . 7 0.02 % 0 . 0 . 7 0.02 %
08 Presión Atm. a Nivel de Estación (QFE) 82.266 0 . 0 . 0 . 0 . 0 0.00 %
09 Presión Atm. a Nivel Medio del Mar (QFF) 92.306 15 0.02 % 0 . 0 . 0 . 15 0.02 %
10 Presión Atm. Estándar OACI (QNH) 19.939 0 . 0 . 0 . 0 . 0 0.00 %
11 Tiempo Pasado Sinóptico 53.654 0 . 0 . 0 . 0 . 0 0.00 %
12 Tiempo Presente Sinóptico 70.829 0 . 4 0.01 % 0 . 0 . 4 0.01 %

Totales

772.119 . 0.0035 % . 0.0401 % . 0.0803 % . 0.0000 % 957 0.1239 %

Detalle de Errores Encontrados

Nivel Fecha del Dato Descripción Información Error Fecha Ingreso
0 1952-06-23 06:00:00 ff (Intensidad del Viento) debe ser numerico, entre 0 y 70 kt. 97 2014-09-30 18:15:00
0 1953-01-06 20:00:00 ff (Intensidad del Viento) debe ser numerico, entre 0 y 70 kt. 121 2013-09-09 13:55:00
0 1971-04-15 17:00:00 ff (Intensidad del Viento) debe ser numerico, entre 0 y 70 kt. 99 2013-05-08 00:28:00
0 1973-09-05 23:00:00 ff (Intensidad del Viento) debe ser numerico, entre 0 y 70 kt. 99 2013-05-08 00:41:00
0 1974-01-22 22:00:00 ff (Intensidad del Viento) debe ser numerico, entre 0 y 70 kt. 99 2013-05-08 00:42:00
0 1974-01-22 23:00:00 ff (Intensidad del Viento) debe ser numerico, entre 0 y 70 kt. 99 2013-05-08 00:42:00
0 1975-10-30 22:00:00 ff (Intensidad del Viento) debe ser numerico, entre 0 y 70 kt. 99 2013-05-08 00:51:00
0 1975-10-30 23:00:00 ff (Intensidad del Viento) debe ser numerico, entre 0 y 70 kt. 99 2013-05-08 00:51:00
0 1975-11-19 13:00:00 ff (Intensidad del Viento) debe ser numerico, entre 0 y 70 kt. 99 2013-05-08 00:51:00
0 1975-11-19 14:00:00 ff (Intensidad del Viento) debe ser numerico, entre 0 y 70 kt. 99 2013-05-08 00:51:00
0 1975-11-19 16:00:00 ff (Intensidad del Viento) debe ser numerico, entre 0 y 70 kt. 99 2013-05-08 00:51:00
0 1952-03-23 06:00:00 qff (Presión a nivel del Mar) debe ser numérico, entre 300 y 1100 9.7 2014-09-24 14:13:00
0 1952-03-23 07:00:00 qff (Presión a nivel del Mar) debe ser numérico, entre 300 y 1100 9.0 2014-09-24 14:13:00
0 1952-03-23 08:00:00 qff (Presión a nivel del Mar) debe ser numérico, entre 300 y 1100 9.0 2014-09-24 14:13:00
0 1952-03-23 09:00:00 qff (Presión a nivel del Mar) debe ser numérico, entre 300 y 1100 13.0 2014-09-24 14:13:00
0 1952-03-23 10:00:00 qff (Presión a nivel del Mar) debe ser numérico, entre 300 y 1100 15.0 2014-09-24 14:13:00
0 1952-03-23 11:00:00 qff (Presión a nivel del Mar) debe ser numérico, entre 300 y 1100 15.6 2014-09-24 14:13:00
0 1952-03-23 12:00:00 qff (Presión a nivel del Mar) debe ser numérico, entre 300 y 1100 16.0 2014-09-24 14:13:00
0 1952-03-23 13:00:00 qff (Presión a nivel del Mar) debe ser numérico, entre 300 y 1100 16.3 2014-09-24 14:13:00
0 1952-03-23 14:00:00 qff (Presión a nivel del Mar) debe ser numérico, entre 300 y 1100 16.6 2014-09-24 14:13:00
0 1952-03-23 15:00:00 qff (Presión a nivel del Mar) debe ser numérico, entre 300 y 1100 16.8 2014-09-24 14:13:00
0 1952-03-23 16:00:00 qff (Presión a nivel del Mar) debe ser numérico, entre 300 y 1100 16.3 2014-09-24 14:13:00
0 1952-03-23 17:00:00 qff (Presión a nivel del Mar) debe ser numérico, entre 300 y 1100 17.6 2014-09-24 14:13:00
0 1952-03-23 18:00:00 qff (Presión a nivel del Mar) debe ser numérico, entre 300 y 1100 18.4 2014-09-24 14:13:00
0 1952-03-23 19:00:00 qff (Presión a nivel del Mar) debe ser numérico, entre 300 y 1100 17.8 2014-09-24 14:13:00
0 1952-07-27 09:00:00 qff (Presión a nivel del Mar) debe ser numérico, entre 300 y 1100 101.4 2014-10-02 12:45:00
0 1965-04-12 15:00:00 Td (Temperatura Del Punto de Rocio) debe ser numérico, entre -50.0 y 50.0 -50.4
Errores del Nivel 27
Nivel Fecha del Dato Descripción Información Error Fecha Ingreso
1 1952-03-28 19:00:00 Viento calma fue mal ingresado. dd = 0 - ff = 14 2014-09-24 15:29:00
1 1952-03-31 09:00:00 Viento calma fue mal ingresado. dd = 0 - ff = 4 2014-09-24 17:58:00
1 1952-11-09 23:00:00 Viento calma fue mal ingresado. dd = 220 - ff = 0 2014-10-08 13:54:00
1 1952-11-23 12:00:00 Viento calma fue mal ingresado. dd = 360 - ff = 0 2014-10-09 12:21:00
1 1963-05-15 09:00:00 ff < 19kt y ((ww >= 31 y ww <= 35) o (ww == 37 o ww == 39 o ww >= 98))) 2013-05-08 00:07:00
1 1952-02-13 07:00:00 Ts debe ser mayor o igual a Td Ts=16.0 - Td=16.9 2014-09-22 19:59:00
1 1952-02-13 10:00:00 Ts debe ser mayor o igual a Td Ts=13.2 - Td=15.6 2014-09-22 19:59:00
1 1952-04-18 07:00:00 Ts debe ser mayor o igual a Td Ts=11.9 - Td=12.2 2014-09-26 12:33:00
1 1952-05-03 08:00:00 HR (Humedad Relativa) es igual a 100% y Ts <> Td 7.4 - 7.0 2014-09-26 15:44:00
1 1952-05-03 11:00:00 Ts debe ser mayor o igual a Td Ts=10.5 - Td=11.1 2014-09-26 15:44:00
1 1952-05-03 11:00:00 HR (Humedad Relativa) es igual a 100% y Ts <> Td 10.5 - 11.1 2014-09-26 15:44:00
1 1952-06-05 10:00:00 HR (Humedad Relativa) es igual a 100% y Ts <> Td 10.4 - 10.1 2014-09-29 19:43:00
1 1957-02-06 18:00:00 Ts debe ser mayor o igual a Td Ts=17.7 - Td=40.9 2013-05-07 16:20:00
1 1957-02-23 18:00:00 Ts debe ser mayor o igual a Td Ts=13.2 - Td=17.6 2013-05-07 16:20:00
1 1957-02-26 21:00:00 Ts debe ser mayor o igual a Td Ts=9.9 - Td=19.7 2013-05-07 16:20:00
1 1957-05-07 18:00:00 Ts debe ser mayor o igual a Td Ts=11.8 - Td=16.0 2013-05-07 16:20:00
1 1957-06-20 12:00:00 Ts debe ser mayor o igual a Td Ts=0.6 - Td=10.8 2013-05-07 16:20:00
1 1957-07-23 15:00:00 Ts debe ser mayor o igual a Td Ts=8.2 - Td=10.6 2013-05-07 16:20:00
1 1957-08-11 21:00:00 Ts debe ser mayor o igual a Td Ts=1.3 - Td=18.5 2013-05-07 16:20:00
1 1957-08-12 15:00:00 Ts debe ser mayor o igual a Td Ts=1.2 - Td=18.3 2013-05-07 16:20:00
1 1957-09-04 15:00:00 Ts debe ser mayor o igual a Td Ts=10.5 - Td=11.0 2013-05-07 16:20:00
1 1957-09-11 12:00:00 Ts debe ser mayor o igual a Td Ts=4.0 - Td=4.9 2013-05-07 16:20:00
1 1957-09-25 12:00:00 Ts debe ser mayor o igual a Td Ts=4.0 - Td=12.3 2013-05-07 16:21:00
1 1957-10-06 21:00:00 Ts debe ser mayor o igual a Td Ts=13.2 - Td=40.9 2013-05-07 16:21:00
1 1957-10-20 21:00:00 Ts debe ser mayor o igual a Td Ts=12.2 - Td=14.5 2013-05-07 16:21:00
1 1957-12-26 21:00:00 Ts debe ser mayor o igual a Td Ts=15.5 - Td=18.0 2013-05-07 16:21:00
1 1958-03-06 18:00:00 Ts debe ser mayor o igual a Td Ts=12.2 - Td=18.5 2013-05-07 16:21:00
1 1958-08-03 12:00:00 Ts debe ser mayor o igual a Td Ts=4.2 - Td=4.8 2013-05-07 16:22:00
1 1958-12-11 21:00:00 Ts debe ser mayor o igual a Td Ts=7.7 - Td=17.5 2013-05-07 16:22:00
1 1958-12-12 12:00:00 Ts debe ser mayor o igual a Td Ts=10.5 - Td=13.4 2013-05-07 16:22:00
1 1958-12-26 18:00:00 Ts debe ser mayor o igual a Td Ts=6.8 - Td=20.5 2013-05-07 16:22:00
1 1959-01-20 12:00:00 Ts debe ser mayor o igual a Td Ts=8.5 - Td=14.1 2013-05-07 16:22:00
1 1959-02-02 21:00:00 Ts debe ser mayor o igual a Td Ts=15.3 - Td=17.8 2013-05-07 16:22:00
1 1959-03-05 21:00:00 Ts debe ser mayor o igual a Td Ts=17.2 - Td=40.9 2013-05-07 16:22:00
1 1959-04-29 12:00:00 Ts debe ser mayor o igual a Td Ts=7.3 - Td=8.5 2013-05-07 16:22:00
1 1959-04-29 15:00:00 Ts debe ser mayor o igual a Td Ts=13.4 - Td=14.7 2013-05-07 16:22:00
1 1959-06-06 15:00:00 Ts debe ser mayor o igual a Td Ts=11.0 - Td=11.4 2013-05-07 16:23:00
1 1959-06-10 12:00:00 Ts debe ser mayor o igual a Td Ts=4.2 - Td=6.3 2013-05-07 16:23:00
1 1959-06-13 12:00:00 Ts debe ser mayor o igual a Td Ts=3.3 - Td=18.8 2013-05-07 16:23:00
1 1965-01-16 09:00:00 Ts debe ser mayor o igual a Td Ts=12.2 - Td=12.7 2013-05-07 16:23:00
1 1965-02-06 18:00:00 Ts debe ser mayor o igual a Td Ts=12.6 - Td=17.9 2013-05-07 16:23:00
1 1965-02-19 12:00:00 Ts debe ser mayor o igual a Td Ts=12.1 - Td=12.4 2013-05-07 16:23:00
1 1965-02-24 21:00:00 Ts debe ser mayor o igual a Td Ts=15.3 - Td=17.9 2013-05-07 16:23:00
1 1965-03-11 15:00:00 Ts debe ser mayor o igual a Td Ts=14.4 - Td=15.4 2013-05-07 16:23:00
1 1965-05-16 09:00:00 Ts debe ser mayor o igual a Td Ts=2.9 - Td=3.3 2013-05-07 16:23:00
1 1965-06-01 15:00:00 Ts debe ser mayor o igual a Td Ts=13.2 - Td=15.6 2013-05-07 16:23:00
1 1965-06-09 12:00:00 Ts debe ser mayor o igual a Td Ts=7.5 - Td=7.9 2013-05-07 16:23:00
1 1965-06-13 12:00:00 Ts debe ser mayor o igual a Td Ts=5.0 - Td=9.7 2013-05-07 16:23:00
1 1965-06-23 15:00:00 Ts debe ser mayor o igual a Td Ts=13.1 - Td=40.9 2013-05-07 16:23:00
1 1965-07-13 15:00:00 Ts debe ser mayor o igual a Td Ts=10.0 - Td=10.4 2013-05-07 16:23:00
1 1965-07-24 12:00:00 Ts debe ser mayor o igual a Td Ts=12.5 - Td=40.9 2013-05-07 16:23:00
1 1965-08-12 15:00:00 Ts debe ser mayor o igual a Td Ts=12.4 - Td=40.9 2013-05-07 16:23:00
1 1965-09-03 21:00:00 Ts debe ser mayor o igual a Td Ts=13.0 - Td=40.9 2013-05-07 16:24:00
1 1965-09-04 09:00:00 Ts debe ser mayor o igual a Td Ts=3.0 - Td=13.0 2013-05-07 16:24:00
1 1965-12-12 00:00:00 Ts debe ser mayor o igual a Td Ts=1.6 - Td=20.7 2013-05-07 16:24:00
1 1966-04-01 18:00:00 Ts debe ser mayor o igual a Td Ts=14.0 - Td=15.0 2013-05-07 16:25:00
1 1966-05-19 18:00:00 Ts debe ser mayor o igual a Td Ts=12.3 - Td=13.0 2013-05-07 16:25:00
1 1966-08-04 12:00:00 Ts debe ser mayor o igual a Td Ts=0.0 - Td=9.8 2013-05-07 16:25:00
1 1966-08-22 12:00:00 Ts debe ser mayor o igual a Td Ts=5.9 - Td=7.7 2013-05-07 16:25:00
1 1966-12-17 21:00:00 Ts debe ser mayor o igual a Td Ts=11.6 - Td=15.5 2013-05-07 16:26:00
1 1966-12-20 09:00:00 Ts debe ser mayor o igual a Td Ts=10.7 - Td=11.2 2013-05-07 16:26:00
1 1966-12-31 12:00:00 Ts debe ser mayor o igual a Td Ts=14.5 - Td=15.0 2013-05-07 16:26:00
1 1967-03-06 18:00:00 Ts debe ser mayor o igual a Td Ts=16.8 - Td=40.9 2013-05-07 16:26:00
1 1967-03-13 00:00:00 Ts debe ser mayor o igual a Td Ts=14.0 - Td=40.9 2013-05-07 16:26:00
1 1967-03-17 09:00:00 Ts debe ser mayor o igual a Td Ts=11.2 - Td=20.0 2013-05-07 16:26:00
1 1967-05-07 18:00:00 Ts debe ser mayor o igual a Td Ts=15.2 - Td=15.8 2013-05-07 16:27:00
1 1967-05-25 00:00:00 Ts debe ser mayor o igual a Td Ts=14.6 - Td=14.9 2013-05-07 16:27:00
1 1967-06-11 12:00:00 Ts debe ser mayor o igual a Td Ts=30.0 - Td=40.9 2013-05-07 16:27:00
1 1967-07-02 18:00:00 Ts debe ser mayor o igual a Td Ts=11.2 - Td=12.2 2013-05-07 16:27:00
1 1967-07-04 12:00:00 Ts debe ser mayor o igual a Td Ts=21.0 - Td=40.9 2013-05-07 16:27:00
1 1967-07-22 21:00:00 Ts debe ser mayor o igual a Td Ts=10.2 - Td=11.6 2013-05-07 16:27:00
1 1967-10-04 09:00:00 Ts debe ser mayor o igual a Td Ts=6.2 - Td=7.0 2013-05-07 16:27:00
1 1967-10-20 18:00:00 Ts debe ser mayor o igual a Td Ts=15.5 - Td=40.9 2013-05-07 16:27:00
1 1967-12-22 12:00:00 Ts debe ser mayor o igual a Td Ts=11.5 - Td=12.4 2013-05-07 16:28:00
1 1968-01-05 00:00:00 Ts debe ser mayor o igual a Td Ts=12.4 - Td=14.5 2013-05-07 16:28:00
1 1968-01-07 09:00:00 Ts debe ser mayor o igual a Td Ts=10.7 - Td=11.8 2013-05-07 16:28:00
1 1968-02-02 00:00:00 Ts debe ser mayor o igual a Td Ts=14.5 - Td=15.8 2013-05-07 16:28:00
1 1968-03-06 00:00:00 Ts debe ser mayor o igual a Td Ts=14.0 - Td=18.9 2013-05-07 16:28:00
1 1968-03-10 21:00:00 Ts debe ser mayor o igual a Td Ts=15.5 - Td=16.3 2013-05-07 16:28:00
1 1968-03-12 21:00:00 Ts debe ser mayor o igual a Td Ts=13.9 - Td=17.2 2013-05-07 16:28:00
1 1968-03-13 00:00:00 Ts debe ser mayor o igual a Td Ts=13.7 - Td=16.7 2013-05-07 16:28:00
1 1968-03-14 12:00:00 Ts debe ser mayor o igual a Td Ts=13.5 - Td=13.8 2013-05-07 16:28:00
1 1968-03-16 12:00:00 Ts debe ser mayor o igual a Td Ts=10.3 - Td=15.8 2013-05-07 16:28:00
1 1968-03-16 21:00:00 Ts debe ser mayor o igual a Td Ts=13.4 - Td=16.9 2013-05-07 16:28:00
1 1968-03-19 12:00:00 Ts debe ser mayor o igual a Td Ts=8.5 - Td=9.2 2013-05-07 16:28:00
1 1968-06-21 18:00:00 Ts debe ser mayor o igual a Td Ts=12.7 - Td=40.9 2013-05-07 16:28:00
1 1968-06-26 12:00:00 Ts debe ser mayor o igual a Td Ts=10.6 - Td=11.7 2013-05-07 16:28:00
1 1968-10-06 09:00:00 Ts debe ser mayor o igual a Td Ts=0.6 - Td=10.1 2013-05-07 16:29:00
1 1968-11-19 12:00:00 Ts debe ser mayor o igual a Td Ts=13.8 - Td=14.1 2013-05-07 16:29:00
1 1968-11-26 18:00:00 Ts debe ser mayor o igual a Td Ts=14.4 - Td=15.7 2013-05-07 16:29:00
1 1968-11-27 21:00:00 Ts debe ser mayor o igual a Td Ts=15.3 - Td=16.1 2013-05-07 16:29:00
1 1969-01-06 22:00:00 Ts debe ser mayor o igual a Td Ts=14.2 - Td=15.8 2013-05-07 16:29:00
1 1969-01-15 09:00:00 Ts debe ser mayor o igual a Td Ts=14.2 - Td=15.5 2013-05-07 16:30:00
1 1969-02-28 10:00:00 Ts debe ser mayor o igual a Td Ts=10.8 - Td=13.5 2013-05-07 16:30:00
1 1969-03-04 12:00:00 Ts debe ser mayor o igual a Td Ts=13.8 - Td=16.5 2013-05-07 16:30:00
1 1969-03-13 14:00:00 Ts debe ser mayor o igual a Td Ts=15.2 - Td=15.8 2013-05-07 16:30:00
1 1969-03-23 09:00:00 Ts debe ser mayor o igual a Td Ts=1.5 - Td=20.3 2013-05-07 16:30:00
1 1969-04-01 21:00:00 Ts debe ser mayor o igual a Td Ts=17.0 - Td=20.0 2013-05-07 16:31:00
1 1969-04-11 11:00:00 Ts debe ser mayor o igual a Td Ts=9.0 - Td=10.1 2013-05-07 16:31:00
1 1969-04-11 12:00:00 Ts debe ser mayor o igual a Td Ts=9.0 - Td=9.9 2013-05-07 16:31:00
1 1969-04-14 13:00:00 Ts debe ser mayor o igual a Td Ts=7.3 - Td=7.7 2013-05-07 16:31:00
1 1969-04-25 10:00:00 Ts debe ser mayor o igual a Td Ts=10.0 - Td=23.7 2013-05-07 16:31:00
1 1969-05-04 14:00:00 Ts debe ser mayor o igual a Td Ts=4.8 - Td=13.4 2013-05-07 16:31:00
1 1969-06-15 15:00:00 Ts debe ser mayor o igual a Td Ts=1.0 - Td=13.8 2013-05-07 16:31:00
1 1969-06-26 21:00:00 Ts debe ser mayor o igual a Td Ts=7.9 - Td=12.0 2013-05-07 16:32:00
1 1969-07-08 10:00:00 Ts debe ser mayor o igual a Td Ts=0.8 - Td=16.3 2013-05-07 16:32:00
1 1969-07-08 20:00:00 Ts debe ser mayor o igual a Td Ts=3.8 - Td=14.5 2013-05-07 16:32:00
1 1969-07-15 12:00:00 Ts debe ser mayor o igual a Td Ts=9.4 - Td=10.1 2013-05-07 16:32:00
1 1969-07-16 00:00:00 Ts debe ser mayor o igual a Td Ts=11.0 - Td=11.9 2013-05-07 16:32:00
1 1969-08-21 15:00:00 Ts debe ser mayor o igual a Td Ts=9.3 - Td=10.0 2013-05-07 16:32:00
1 1969-10-12 17:00:00 Ts debe ser mayor o igual a Td Ts=4.1 - Td=17.0 2013-05-07 16:33:00
1 1969-10-17 16:00:00 Ts debe ser mayor o igual a Td Ts=4.7 - Td=15.3 2013-05-07 16:33:00
1 1969-10-18 12:00:00 Ts debe ser mayor o igual a Td Ts=10.0 - Td=23.6 2013-05-07 16:33:00
1 1969-10-20 11:00:00 Ts debe ser mayor o igual a Td Ts=9.0 - Td=9.6 2013-05-07 16:33:00
1 1969-10-25 19:00:00 Ts debe ser mayor o igual a Td Ts=4.0 - Td=17.1 2013-05-07 16:33:00
1 1969-10-26 10:00:00 Ts debe ser mayor o igual a Td Ts=0.3 - Td=16.4 2013-05-07 16:33:00
1 1969-11-11 19:00:00 Ts debe ser mayor o igual a Td Ts=4.8 - Td=17.4 2013-05-07 16:33:00
1 1969-11-17 12:00:00 Ts debe ser mayor o igual a Td Ts=11.2 - Td=11.4 2013-05-07 16:33:00
1 1969-11-19 23:00:00 Ts debe ser mayor o igual a Td Ts=4.0 - Td=17.7 2013-05-07 16:33:00
1 1969-11-24 09:00:00 Ts debe ser mayor o igual a Td Ts=1.0 - Td=14.8 2013-05-07 16:33:00
1 1969-11-24 23:00:00 Ts debe ser mayor o igual a Td Ts=12.5 - Td=16.5 2013-05-07 16:33:00
1 1970-01-10 10:00:00 Ts debe ser mayor o igual a Td Ts=12.0 - Td=12.7 2013-05-07 16:34:00
1 1970-01-23 15:00:00 Ts debe ser mayor o igual a Td Ts=2.2 - Td=24.9 2013-05-07 16:34:00
1 1970-02-06 23:00:00 Ts debe ser mayor o igual a Td Ts=13.8 - Td=14.3 2013-05-07 16:34:00
1 1970-03-05 12:00:00 Ts debe ser mayor o igual a Td Ts=14.0 - Td=14.8 2013-05-07 16:34:00
1 1970-03-12 17:00:00 Ts debe ser mayor o igual a Td Ts=14.4 - Td=16.9 2013-05-07 16:35:00
1 1970-03-14 10:00:00 Ts debe ser mayor o igual a Td Ts=11.9 - Td=12.4 2013-05-07 16:35:00
1 1970-04-13 21:00:00 Ts debe ser mayor o igual a Td Ts=8.4 - Td=19.9 2013-05-07 16:35:00
1 1970-04-24 09:00:00 Ts debe ser mayor o igual a Td Ts=13.0 - Td=13.8 2013-05-07 16:35:00
1 1970-05-08 12:00:00 Ts debe ser mayor o igual a Td Ts=0.7 - Td=12.3 2013-05-07 16:35:00
1 1970-05-15 00:00:00 Ts debe ser mayor o igual a Td Ts=14.0 - Td=18.6 2013-05-07 16:35:00
1 1970-06-01 11:00:00 Ts debe ser mayor o igual a Td Ts=5.4 - Td=14.6 2013-05-07 16:36:00
1 1970-07-07 14:00:00 Ts debe ser mayor o igual a Td Ts=2.2 - Td=2.8 2013-05-07 16:36:00
1 1970-08-03 12:00:00 Ts debe ser mayor o igual a Td Ts=0.7 - Td=11.4 2013-05-07 16:36:00
1 1970-08-10 16:00:00 Ts debe ser mayor o igual a Td Ts=12.1 - Td=18.2 2013-05-07 16:36:00
1 1970-08-11 10:00:00 Ts debe ser mayor o igual a Td Ts=6.0 - Td=7.4 2013-05-07 16:36:00
1 1970-08-22 12:00:00 Ts debe ser mayor o igual a Td Ts=0.2 - Td=6.2 2013-05-07 16:36:00
1 1970-09-24 09:00:00 Ts debe ser mayor o igual a Td Ts=0.7 - Td=11.8 2013-05-07 16:37:00
1 1970-09-29 09:00:00 Ts debe ser mayor o igual a Td Ts=0.7 - Td=10.8 2013-05-07 16:37:00
1 1970-10-09 11:00:00 Ts debe ser mayor o igual a Td Ts=8.4 - Td=9.1 2013-05-07 16:37:00
1 1970-10-12 11:00:00 Ts debe ser mayor o igual a Td Ts=8.0 - Td=10.7 2013-05-07 16:37:00
1 1970-10-18 09:00:00 Ts debe ser mayor o igual a Td Ts=0.7 - Td=11.1 2013-05-07 16:37:00
1 1970-10-25 15:00:00 Ts debe ser mayor o igual a Td Ts=13.4 - Td=14.1 2013-05-07 16:37:00
1 1970-11-10 11:00:00 Ts debe ser mayor o igual a Td Ts=1.7 - Td=17.2 2013-05-07 16:37:00
1 1970-11-10 19:00:00 Ts debe ser mayor o igual a Td Ts=6.0 - Td=15.9 2013-05-07 16:37:00
1 1971-01-11 13:00:00 Ts debe ser mayor o igual a Td Ts=14.3 - Td=19.9 2013-05-07 16:38:00
1 1971-02-11 13:00:00 Ts debe ser mayor o igual a Td Ts=14.4 - Td=20.2 2013-05-07 16:38:00
1 1971-02-19 15:00:00 Ts debe ser mayor o igual a Td Ts=1.7 - Td=21.8 2013-05-07 16:38:00
1 1971-02-23 18:00:00 Ts debe ser mayor o igual a Td Ts=7.4 - Td=19.6 2013-05-07 16:38:00
1 1971-03-05 10:00:00 Ts debe ser mayor o igual a Td Ts=10.0 - Td=10.5 2013-05-07 16:39:00
1 1971-03-22 11:00:00 Ts debe ser mayor o igual a Td Ts=10.2 - Td=23.4 2013-05-07 16:39:00
1 1971-04-18 10:00:00 Ts debe ser mayor o igual a Td Ts=7.3 - Td=9.2 2013-05-07 16:39:00
1 1971-04-18 12:00:00 Ts debe ser mayor o igual a Td Ts=4.3 - Td=19.1 2013-05-07 16:39:00
1 1971-04-25 18:00:00 Ts debe ser mayor o igual a Td Ts=13.9 - Td=18.5 2013-05-07 16:39:00
1 1971-06-13 09:00:00 Ts debe ser mayor o igual a Td Ts=0.3 - Td=4.7 2013-05-07 16:40:00
1 1971-06-13 13:00:00 Ts debe ser mayor o igual a Td Ts=2.2 - Td=16.5 2013-05-07 16:40:00
1 1971-06-22 13:00:00 Ts debe ser mayor o igual a Td Ts=1.6 - Td=16.1 2013-05-07 16:40:00
1 1971-07-04 15:00:00 Ts debe ser mayor o igual a Td Ts=11.3 - Td=13.0 2013-05-07 16:40:00
1 1971-07-09 15:00:00 Ts debe ser mayor o igual a Td Ts=8.0 - Td=9.3 2013-05-07 16:40:00
1 1971-07-12 00:00:00 Ts debe ser mayor o igual a Td Ts=2.0 - Td=16.9 2013-05-07 16:40:00
1 1971-07-31 12:00:00 Ts debe ser mayor o igual a Td Ts=10.4 - Td=11.5 2013-05-07 16:41:00
1 1971-08-05 14:00:00 Ts debe ser mayor o igual a Td Ts=8.5 - Td=9.4 2013-05-07 16:41:00
1 1971-10-09 14:00:00 Ts debe ser mayor o igual a Td Ts=13.3 - Td=17.5 2013-05-07 16:42:00
1 1971-10-13 00:00:00 Ts debe ser mayor o igual a Td Ts=13.3 - Td=13.6 2013-05-07 16:42:00
1 1971-10-17 15:00:00 Ts debe ser mayor o igual a Td Ts=11.2 - Td=12.6 2013-05-07 16:42:00
1 1971-11-27 09:00:00 Ts debe ser mayor o igual a Td Ts=10.0 - Td=10.5 2013-05-07 16:43:00
1 1971-12-03 18:00:00 Ts debe ser mayor o igual a Td Ts=8.4 - Td=17.9 2013-05-07 16:43:00
1 1971-12-14 00:00:00 Ts debe ser mayor o igual a Td Ts=14.3 - Td=15.4 2013-05-07 16:43:00
1 1971-12-24 18:00:00 Ts debe ser mayor o igual a Td Ts=14.6 - Td=15.2 2013-05-07 16:43:00
1 1971-12-26 17:00:00 Ts debe ser mayor o igual a Td Ts=17.4 - Td=18.3 2013-05-07 16:43:00
1 1971-12-29 09:00:00 Ts debe ser mayor o igual a Td Ts=11.2 - Td=23.3 2013-05-07 16:43:00
1 1972-01-11 23:00:00 Ts debe ser mayor o igual a Td Ts=14.5 - Td=16.9 2013-05-07 16:43:00
1 1972-01-26 19:00:00 Ts debe ser mayor o igual a Td Ts=18.0 - Td=20.2 2013-05-07 16:43:00
1 1972-02-05 15:00:00 Ts debe ser mayor o igual a Td Ts=14.2 - Td=14.4 2013-05-07 16:44:00
1 1972-02-06 11:00:00 Ts debe ser mayor o igual a Td Ts=12.1 - Td=12.3 2013-05-07 16:44:00
1 1972-03-09 11:00:00 Ts debe ser mayor o igual a Td Ts=8.0 - Td=8.6 2013-05-07 16:44:00
1 1972-03-10 00:00:00 Ts debe ser mayor o igual a Td Ts=17.0 - Td=20.7 2013-05-07 16:44:00
1 1972-03-23 12:00:00 Ts debe ser mayor o igual a Td Ts=11.0 - Td=14.3 2013-05-07 16:44:00
1 1972-04-02 10:00:00 Ts debe ser mayor o igual a Td Ts=8.4 - Td=9.0 2013-05-07 16:44:00
1 1972-04-06 14:00:00 Ts debe ser mayor o igual a Td Ts=12.0 - Td=12.3 2013-05-07 16:44:00
1 1972-05-04 09:00:00 Ts debe ser mayor o igual a Td Ts=6.4 - Td=20.8 2013-05-07 16:45:00
1 1972-05-04 12:00:00 Ts debe ser mayor o igual a Td Ts=5.3 - Td=20.1 2013-05-07 16:45:00
1 1972-05-11 12:00:00 Ts debe ser mayor o igual a Td Ts=10.3 - Td=11.0 2013-05-07 16:45:00
1 1972-06-03 16:00:00 Ts debe ser mayor o igual a Td Ts=12.4 - Td=13.9 2013-05-07 16:45:00
1 1972-06-08 10:00:00 Ts debe ser mayor o igual a Td Ts=11.0 - Td=12.0 2013-05-07 16:45:00
1 1972-06-19 14:00:00 Ts debe ser mayor o igual a Td Ts=10.9 - Td=20.0 2013-05-07 16:45:00
1 1972-06-24 17:00:00 Ts debe ser mayor o igual a Td Ts=12.4 - Td=13.1 2013-05-07 16:45:00
1 1972-07-07 12:00:00 Ts debe ser mayor o igual a Td Ts=4.0 - Td=9.7 2013-05-07 16:46:00
1 1972-07-12 11:00:00 Ts debe ser mayor o igual a Td Ts=5.0 - Td=13.1 2013-05-07 16:46:00
1 1972-07-31 23:00:00 Ts debe ser mayor o igual a Td Ts=13.5 - Td=15.9 2013-05-07 16:46:00
1 1972-09-16 14:00:00 Ts debe ser mayor o igual a Td Ts=12.3 - Td=18.5 2013-05-07 16:46:00
1 1972-10-01 14:00:00 Ts debe ser mayor o igual a Td Ts=12.0 - Td=14.3 2013-05-07 16:47:00
1 1972-10-08 20:00:00 Ts debe ser mayor o igual a Td Ts=16.0 - Td=17.6 2013-05-07 16:47:00
1 1972-11-26 11:00:00 Ts debe ser mayor o igual a Td Ts=9.6 - Td=9.8 2013-05-07 16:47:00
1 1973-01-12 15:00:00 Ts debe ser mayor o igual a Td Ts=19.0 - Td=19.6 2013-05-07 16:48:00
1 1973-03-16 14:00:00 Ts debe ser mayor o igual a Td Ts=13.4 - Td=14.2 2013-05-07 16:48:00
1 1973-04-26 11:00:00 Ts debe ser mayor o igual a Td Ts=11.8 - Td=12.0 2013-05-07 16:49:00
1 1973-05-14 15:00:00 Ts debe ser mayor o igual a Td Ts=13.5 - Td=15.7 2013-05-07 16:49:00
1 1973-05-24 12:00:00 Ts debe ser mayor o igual a Td Ts=12.0 - Td=13.5 2013-05-07 16:49:00
1 1973-05-24 15:00:00 Ts debe ser mayor o igual a Td Ts=12.2 - Td=13.5 2013-05-07 16:49:00
1 1973-05-24 21:00:00 Ts debe ser mayor o igual a Td Ts=12.4 - Td=13.6 2013-05-07 16:49:00
1 1973-06-13 16:00:00 Ts debe ser mayor o igual a Td Ts=11.8 - Td=18.2 2013-05-07 16:50:00
1 1973-07-26 12:00:00 Ts debe ser mayor o igual a Td Ts=5.4 - Td=12.4 2013-05-07 16:50:00
1 1973-07-31 17:00:00 Ts debe ser mayor o igual a Td Ts=13.0 - Td=21.8 2013-05-07 16:50:00
1 1973-08-01 21:00:00 Ts debe ser mayor o igual a Td Ts=10.0 - Td=13.4 2013-05-07 16:50:00
1 1973-08-02 00:00:00 Ts debe ser mayor o igual a Td Ts=9.4 - Td=12.7 2013-05-07 16:50:00
1 1973-08-06 13:00:00 Ts debe ser mayor o igual a Td Ts=6.0 - Td=9.8 2013-05-07 16:50:00
1 1973-08-12 12:00:00 Ts debe ser mayor o igual a Td Ts=8.5 - Td=9.1 2013-05-07 16:50:00
1 1973-08-31 17:00:00 Ts debe ser mayor o igual a Td Ts=10.6 - Td=18.1 2013-05-07 16:50:00
1 1973-09-05 15:00:00 Ts debe ser mayor o igual a Td Ts=4.7 - Td=11.8 2013-05-07 16:50:00
1 1973-11-04 12:00:00 Ts debe ser mayor o igual a Td Ts=9.7 - Td=9.9 2013-05-07 16:51:00
1 1973-11-05 12:00:00 Ts debe ser mayor o igual a Td Ts=8.3 - Td=9.2 2013-05-07 16:51:00
1 1973-11-10 17:00:00 Ts debe ser mayor o igual a Td Ts=13.6 - Td=19.6 2013-05-07 16:51:00
1 1973-11-14 14:00:00 Ts debe ser mayor o igual a Td Ts=11.1 - Td=11.6 2013-05-07 16:51:00
1 1973-11-20 19:00:00 Ts debe ser mayor o igual a Td Ts=14.6 - Td=18.3 2013-05-07 16:51:00
1 1974-03-17 13:00:00 Ts debe ser mayor o igual a Td Ts=11.9 - Td=22.2 2013-05-07 16:53:00
1 1974-04-02 17:00:00 Ts debe ser mayor o igual a Td Ts=14.3 - Td=15.0 2013-05-07 16:53:00
1 1974-04-07 00:00:00 Ts debe ser mayor o igual a Td Ts=5.1 - Td=18.9 2013-05-07 16:53:00
1 1974-04-15 12:00:00 Ts debe ser mayor o igual a Td Ts=7.3 - Td=11.6 2013-05-07 16:53:00
1 1974-04-27 21:00:00 Ts debe ser mayor o igual a Td Ts=3.6 - Td=17.8 2013-05-07 16:53:00
1 1974-05-16 14:00:00 Ts debe ser mayor o igual a Td Ts=14.7 - Td=16.3 2013-05-07 16:54:00
1 1974-06-04 15:00:00 Ts debe ser mayor o igual a Td Ts=12.0 - Td=16.2 2013-05-07 16:54:00
1 1974-06-18 23:00:00 Ts debe ser mayor o igual a Td Ts=13.1 - Td=14.6 2013-05-07 16:54:00
1 1974-07-15 22:00:00 Ts debe ser mayor o igual a Td Ts=12.2 - Td=16.7 2013-05-07 16:54:00
1 1974-07-21 12:00:00 Ts debe ser mayor o igual a Td Ts=1.0 - Td=13.5 2013-05-07 16:54:00
1 1974-07-27 00:00:00 Ts debe ser mayor o igual a Td Ts=12.0 - Td=19.6 2013-05-07 16:54:00
1 1974-08-12 00:00:00 Ts debe ser mayor o igual a Td Ts=9.0 - Td=9.4 2013-05-07 16:55:00
1 1974-08-21 18:00:00 Ts debe ser mayor o igual a Td Ts=11.2 - Td=12.2 2013-05-07 16:55:00
1 1974-12-26 13:00:00 Ts debe ser mayor o igual a Td Ts=11.6 - Td=16.1 2013-05-07 16:56:00
1 1975-01-16 11:00:00 Ts debe ser mayor o igual a Td Ts=15.0 - Td=18.5 2013-05-07 16:57:00
1 1975-01-19 18:00:00 Ts debe ser mayor o igual a Td Ts=8.4 - Td=19.7 2013-05-07 16:57:00
1 1975-02-23 15:00:00 Ts debe ser mayor o igual a Td Ts=1.8 - Td=21.8 2013-05-07 16:57:00
1 1975-03-22 16:00:00 Ts debe ser mayor o igual a Td Ts=15.8 - Td=21.6 2013-05-07 16:57:00
1 1975-03-31 17:00:00 Ts debe ser mayor o igual a Td Ts=16.2 - Td=17.7 2013-05-07 16:58:00
1 1975-04-22 18:00:00 Ts debe ser mayor o igual a Td Ts=7.2 - Td=18.9 2013-05-07 16:58:00
1 1975-05-11 15:00:00 Ts debe ser mayor o igual a Td Ts=16.3 - Td=20.3 2013-05-07 16:58:00
1 1975-06-03 23:00:00 Ts debe ser mayor o igual a Td Ts=12.5 - Td=21.4 2013-05-07 16:58:00
1 1975-06-07 13:00:00 Ts debe ser mayor o igual a Td Ts=0.6 - Td=10.5 2013-05-07 16:58:00
1 1975-06-08 14:00:00 Ts debe ser mayor o igual a Td Ts=11.7 - Td=17.9 2013-05-07 16:58:00
1 1975-06-30 12:00:00 Ts debe ser mayor o igual a Td Ts=0.9 - Td=14.5 2013-05-07 16:59:00
1 1975-07-04 00:00:00 Ts debe ser mayor o igual a Td Ts=11.0 - Td=14.3 2013-05-07 16:59:00
1 1975-07-19 15:00:00 Ts debe ser mayor o igual a Td Ts=8.7 - Td=9.6 2013-05-07 16:59:00
1 1975-07-26 15:00:00 Ts debe ser mayor o igual a Td Ts=1.1 - Td=16.4 2013-05-07 16:59:00
1 1975-09-10 00:00:00 Ts debe ser mayor o igual a Td Ts=11.3 - Td=23.7 2013-05-07 16:59:00
1 1975-09-14 21:00:00 Ts debe ser mayor o igual a Td Ts=11.2 - Td=14.2 2013-05-07 16:59:00
1 1975-09-23 15:00:00 Ts debe ser mayor o igual a Td Ts=10.7 - Td=24.4 2013-05-07 17:00:00
1 1975-10-11 17:00:00 Ts debe ser mayor o igual a Td Ts=13.0 - Td=22.0 2013-05-07 17:00:00
1 1975-11-12 14:00:00 Ts debe ser mayor o igual a Td Ts=12.0 - Td=22.7 2013-05-07 17:00:00
1 1975-11-26 12:00:00 Ts debe ser mayor o igual a Td Ts=1.3 - Td=17.5 2013-05-07 17:00:00
1 1975-12-07 12:00:00 Ts debe ser mayor o igual a Td Ts=11.2 - Td=13.2 2013-05-07 17:00:00
1 1976-02-29 19:00:00 Ts debe ser mayor o igual a Td Ts=9.0 - Td=16.4 2013-05-07 17:01:00
1 1976-04-07 18:00:00 Ts debe ser mayor o igual a Td Ts=15.4 - Td=15.7 2013-05-07 17:02:00
1 1976-04-09 17:00:00 Ts debe ser mayor o igual a Td Ts=12.2 - Td=12.5 2013-05-07 17:02:00
1 1976-06-07 00:00:00 Ts debe ser mayor o igual a Td Ts=12.3 - Td=13.1 2013-05-07 17:02:00
1 1976-06-10 22:00:00 Ts debe ser mayor o igual a Td Ts=3.8 - Td=17.7 2013-05-07 17:03:00
1 1976-06-27 12:00:00 Ts debe ser mayor o igual a Td Ts=-1.8 - Td=-1.0 2013-05-07 17:03:00
1 1976-06-27 13:00:00 Ts debe ser mayor o igual a Td Ts=-0.4 - Td=2.9 2013-05-07 17:03:00
1 1976-07-05 13:00:00 Ts debe ser mayor o igual a Td Ts=4.6 - Td=14.0 2013-05-07 17:03:00
1 1976-07-09 13:00:00 Ts debe ser mayor o igual a Td Ts=-2.4 - Td=-1.6 2013-05-07 17:03:00
1 1976-07-26 12:00:00 Ts debe ser mayor o igual a Td Ts=1.5 - Td=2.2 2013-05-07 17:03:00
1 1976-08-10 18:00:00 Ts debe ser mayor o igual a Td Ts=5.2 - Td=16.5 2013-05-07 17:03:00
1 1976-09-08 12:00:00 Ts debe ser mayor o igual a Td Ts=0.2 - Td=16.9 2013-05-07 17:03:00
1 1976-09-09 13:00:00 Ts debe ser mayor o igual a Td Ts=5.6 - Td=6.2 2013-05-07 17:03:00
1 1977-01-08 15:00:00 Ts debe ser mayor o igual a Td Ts=17.6 - Td=19.7 2013-05-07 17:05:00
1 1977-02-04 15:00:00 Ts debe ser mayor o igual a Td Ts=8.6 - Td=19.9 2013-05-07 17:05:00
1 1977-04-13 12:00:00 Ts debe ser mayor o igual a Td Ts=11.8 - Td=16.0 2013-05-07 17:06:00
1 1977-06-05 21:00:00 Ts debe ser mayor o igual a Td Ts=13.6 - Td=21.5 2013-05-07 17:07:00
1 1977-06-17 20:00:00 Ts debe ser mayor o igual a Td Ts=11.4 - Td=18.8 2013-05-07 17:07:00
1 1977-07-01 17:00:00 Ts debe ser mayor o igual a Td Ts=12.0 - Td=12.2 2013-05-07 17:07:00
1 1977-07-20 21:00:00 Ts debe ser mayor o igual a Td Ts=12.4 - Td=12.6 2013-05-07 17:07:00
1 1977-07-21 14:00:00 Ts debe ser mayor o igual a Td Ts=12.6 - Td=15.5 2013-05-07 17:07:00
1 1977-07-29 20:00:00 Ts debe ser mayor o igual a Td Ts=11.3 - Td=11.5 2013-05-07 17:07:00
1 1977-08-19 23:00:00 Ts debe ser mayor o igual a Td Ts=11.7 - Td=12.0 2013-05-07 17:07:00
1 1977-08-23 12:00:00 Ts debe ser mayor o igual a Td Ts=5.1 - Td=13.5 2013-05-07 17:07:00
1 1977-08-28 12:00:00 Ts debe ser mayor o igual a Td Ts=5.2 - Td=20.3 2013-05-07 17:08:00
1 1977-11-25 12:00:00 Ts debe ser mayor o igual a Td Ts=9.4 - Td=15.3 2013-05-07 17:09:00
1 1978-01-24 11:00:00 Ts debe ser mayor o igual a Td Ts=14.6 - Td=14.8 2013-05-07 17:09:00
1 1978-02-28 12:00:00 Ts debe ser mayor o igual a Td Ts=13.8 - Td=16.2 2013-05-07 17:10:00
1 1978-03-01 13:00:00 Ts debe ser mayor o igual a Td Ts=17.2 - Td=20.2 2013-05-07 17:10:00
1 1978-03-30 13:00:00 Ts debe ser mayor o igual a Td Ts=13.9 - Td=19.8 2013-05-07 17:10:00
1 1978-04-15 12:00:00 Ts debe ser mayor o igual a Td Ts=14.4 - Td=15.0 2013-05-07 17:10:00
1 1978-05-30 23:00:00 Ts debe ser mayor o igual a Td Ts=6.2 - Td=11.3 2013-05-07 17:11:00
1 1978-06-05 12:00:00 Ts debe ser mayor o igual a Td Ts=9.2 - Td=9.6 2013-05-07 17:11:00
1 1978-06-23 17:00:00 Ts debe ser mayor o igual a Td Ts=13.4 - Td=19.2 2013-05-07 17:11:00
1 1978-06-30 23:00:00 Ts debe ser mayor o igual a Td Ts=1.6 - Td=18.0 2013-05-07 17:11:00
1 1978-07-06 14:00:00 Ts debe ser mayor o igual a Td Ts=1.2 - Td=18.3 2013-05-07 17:11:00
1 1978-08-02 20:00:00 Ts debe ser mayor o igual a Td Ts=12.0 - Td=13.4 2013-05-07 17:11:00
1 1978-08-06 12:00:00 Ts debe ser mayor o igual a Td Ts=1.2 - Td=2.4 2013-05-07 17:11:00
1 1978-08-09 18:00:00 Ts debe ser mayor o igual a Td Ts=4.2 - Td=17.0 2013-05-07 17:11:00
1 1978-08-13 13:00:00 Ts debe ser mayor o igual a Td Ts=2.1 - Td=2.3 2013-05-07 17:12:00
1 1978-08-21 16:00:00 Ts debe ser mayor o igual a Td Ts=10.6 - Td=23.3 2013-05-07 17:12:00
1 1979-01-02 14:00:00 Ts debe ser mayor o igual a Td Ts=14.2 - Td=18.5 2013-05-07 17:13:00
1 1979-01-11 12:00:00 Ts debe ser mayor o igual a Td Ts=11.2 - Td=16.6 2013-05-07 17:13:00
1 1979-04-13 21:00:00 Ts debe ser mayor o igual a Td Ts=15.6 - Td=20.1 2013-05-07 17:14:00
1 1979-04-15 16:00:00 Ts debe ser mayor o igual a Td Ts=13.8 - Td=14.0 2013-05-07 17:14:00
1 1979-04-24 18:00:00 Ts debe ser mayor o igual a Td Ts=17.2 - Td=18.1 2013-05-07 17:14:00
1 1979-05-06 21:00:00 Ts debe ser mayor o igual a Td Ts=12.4 - Td=14.7 2013-05-07 17:15:00
1 1979-06-04 13:00:00 Ts debe ser mayor o igual a Td Ts=4.7 - Td=4.9 2013-05-07 17:15:00
1 1979-08-11 15:00:00 Ts debe ser mayor o igual a Td Ts=11.1 - Td=14.1 2013-05-07 17:16:00
1 1956-06-09 21:00:00 ts > 12.0 y ( (ww >= 68 y ww <= 69) o (ww >= 83 y ww <= 84)) 68 2013-05-07 21:10:00
1 1957-04-05 12:00:00 (ts - td > 5.0) y ((ww >= 40 y ww <= 49)) 47 2013-05-07 21:11:00
1 1960-08-11 21:00:00 ts > 3.0 y ( (ww >= 48 y ww <= 49) o (ww >= 56 y ww <= 57) o (ww >=66 y ww <= 67)) 67 2013-05-07 21:16:00
1 1974-06-09 00:00:00 ts > 5.0 y ((ww >= 70 y ww <= 79) || (ww >= 85 y ww <= 88))) 87 2013-05-07 21:41:00
1 1980-08-04 12:00:00 rrr = s/p y WW = 1 w1=6 w2=2 0.0 2013-05-07 15:33:00
1 1980-10-01 12:00:00 rrr = s/p y WW = 2 w1=6 w2=2 0.0 2013-05-07 15:33:00
1 1982-05-11 12:00:00 rrr = 1.6 y WW = 10 w1=2 w2=2 1.6 2013-05-07 15:35:00
1 1982-06-05 00:00:00 rrr = s/p y WW = 1 w1=6 w2=1 0.0 2013-05-07 15:35:00
1 1982-06-12 12:00:00 rrr = trazas y WW = 10 w1=2 w2=2 0.0 2013-05-07 15:35:00
1 1982-07-06 12:00:00 rrr = 0.2 y WW = 10 w1=1 w2=1 0.2 2013-05-07 15:35:00
1 1982-09-14 12:00:00 rrr = 0.3 y WW = 10 w1=2 w2=2 0.3 2013-05-07 15:35:00
Errores del Nivel 310
Nivel Fecha del Dato Descripción Información Error Fecha Ingreso
2 1952-06-23 07:00:00 Variación horaria de Intensidad del viento fuera de rango (1 hora Antes) 10 - 97 2014-09-30 18:15:00
2 1952-09-12 07:00:00 Variación horaria de Intensidad del viento fuera de rango (1 hora Antes) 3 - 40 2014-10-06 14:14:00
2 1953-01-06 20:00:00 Variación horaria de Intensidad del viento fuera de rango (1 hora Antes) 121 - 10 2013-09-09 13:55:00
2 1953-01-06 20:00:00 Variación Tri-horaria de Intensidad del viento fuera de rango (3 hora Antes) 121 - 6 2013-09-09 13:55:00
2 1953-01-06 21:00:00 Variación horaria de Intensidad del viento fuera de rango (1 hora Antes) 8 - 121 2013-09-09 13:55:00
2 1953-01-06 23:00:00 Variación Tri-horaria de Intensidad del viento fuera de rango (3 hora Antes) 6 - 121 2013-09-09 13:56:00
2 1953-05-31 13:00:00 Variación horaria de Intensidad del viento fuera de rango (1 hora Antes) 41 - 4 2013-10-09 15:45:00
2 1953-05-31 14:00:00 Variación horaria de Intensidad del viento fuera de rango (1 hora Antes) 0 - 41 2013-10-09 15:45:00
2 1969-01-02 12:00:00 Variación horaria de Intensidad del viento fuera de rango (1 hora Antes) 40 - 0 2013-05-08 00:16:00
2 1969-07-05 22:00:00 Variación horaria de Intensidad del viento fuera de rango (1 hora Antes) 3 - 35 2013-05-08 00:19:00
2 1969-08-31 15:00:00 Variación horaria de Intensidad del viento fuera de rango (1 hora Antes) 32 - 0 2013-05-08 00:20:00
2 1970-01-07 20:00:00 Variación horaria de Intensidad del viento fuera de rango (1 hora Antes) 5 - 38 2013-05-08 00:21:00
2 1970-01-07 21:00:00 Variación horaria de Intensidad del viento fuera de rango (1 hora Antes) 38 - 5 2013-05-08 00:21:00
2 1970-02-11 19:00:00 Variación horaria de Intensidad del viento fuera de rango (1 hora Antes) 42 - 9 2013-05-08 00:22:00
2 1971-04-15 17:00:00 Variación horaria de Intensidad del viento fuera de rango (1 hora Antes) 99 - 26 2013-05-08 00:28:00
2 1971-04-15 18:00:00 Variación horaria de Intensidad del viento fuera de rango (1 hora Antes) 35 - 99 2013-05-08 00:28:00
2 1973-09-05 23:00:00 Variación horaria de Intensidad del viento fuera de rango (1 hora Antes) 99 - 20 2013-05-08 00:41:00
2 1973-09-06 00:00:00 Variación horaria de Intensidad del viento fuera de rango (1 hora Antes) 20 - 99 2013-05-08 00:41:00
2 1974-01-22 22:00:00 Variación horaria de Intensidad del viento fuera de rango (1 hora Antes) 99 - 20 2013-05-08 00:42:00
2 1974-01-23 00:00:00 Variación horaria de Intensidad del viento fuera de rango (1 hora Antes) 10 - 99 2013-05-08 00:42:00
2 1974-06-04 00:00:00 Variación horaria de Intensidad del viento fuera de rango (1 hora Antes) 50 - 8 2013-05-08 00:44:00
2 1975-04-10 00:00:00 Variación horaria de Intensidad del viento fuera de rango (1 hora Antes) 41 - 2 2013-05-08 00:48:00
2 1975-10-30 22:00:00 Variación horaria de Intensidad del viento fuera de rango (1 hora Antes) 99 - 10 2013-05-08 00:51:00
2 1975-10-31 00:00:00 Variación horaria de Intensidad del viento fuera de rango (1 hora Antes) 4 - 99 2013-05-08 00:51:00
2 1975-11-19 13:00:00 Variación horaria de Intensidad del viento fuera de rango (1 hora Antes) 99 - 3 2013-05-08 00:51:00
2 1975-11-19 14:00:00 Variación Tri-horaria de Intensidad del viento fuera de rango (3 hora Antes) 99 - 0 2013-05-08 00:51:00
2 1975-11-19 15:00:00 Variación horaria de Intensidad del viento fuera de rango (1 hora Antes) 8 - 99 2013-05-08 00:51:00
2 1975-11-19 16:00:00 Variación horaria de Intensidad del viento fuera de rango (1 hora Antes) 99 - 8 2013-05-08 00:51:00
2 1975-11-19 17:00:00 Variación horaria de Intensidad del viento fuera de rango (1 hora Antes) 18 - 99 2013-05-08 00:51:00
2 1981-06-17 13:00:00 Variación horaria de Intensidad del viento fuera de rango (1 hora Antes) 5 - 37 2013-05-08 01:17:00
2 1982-02-06 12:00:00 Variación horaria de Intensidad del viento fuera de rango (1 hora Antes) 32 - 0 2013-05-08 01:20:00
2 1982-02-06 13:00:00 Variación horaria de Intensidad del viento fuera de rango (1 hora Antes) 0 - 32 2013-05-08 01:20:00
2 1952-01-03 00:00:00 Temperatura 29.4 del 02-01-1952 19:00, Mayor que la Máxima 22.3 03-01-1952 00:00 29.4 -- 22.3 2014-09-30 20:11:00
2 1952-01-10 00:00:00 Temperatura 28.8 del 09-01-1952 13:00, Mayor que la Máxima 20.6 10-01-1952 00:00 28.8 -- 20.6 2014-09-30 20:11:00
2 1952-01-17 00:00:00 Temperatura 23.0 del 16-01-1952 14:00, Mayor que la Máxima 22.5 17-01-1952 00:00 23.0 -- 22.5 2014-09-30 20:11:00
2 1952-02-02 00:00:00 Temperatura 21.5 del 01-02-1952 13:00, Mayor que la Máxima 20.1 02-02-1952 00:00 21.5 -- 20.1 2014-10-01 11:59:00
2 1952-02-19 00:00:00 Temperatura 20.5 del 18-02-1952 17:00, Mayor que la Máxima 20.4 19-02-1952 00:00 20.5 -- 20.4 2014-10-01 11:59:00
2 1952-03-08 00:00:00 Temperatura 18.0 del 07-03-1952 17:00, Mayor que la Máxima 11.5 08-03-1952 00:00 18.0 -- 11.5 2014-10-01 12:06:00
2 1952-04-16 00:00:00 Temperatura 15.3 del 15-04-1952 15:00, Mayor que la Máxima 15.2 16-04-1952 00:00 15.3 -- 15.2 2014-10-01 12:16:00
2 1952-05-09 00:00:00 Temperatura 17.0 del 08-05-1952 14:00, Mayor que la Máxima 15.2 09-05-1952 00:00 17.0 -- 15.2 2014-10-01 12:23:00
2 1952-05-10 00:00:00 Temperatura 14.0 del 09-05-1952 16:00, Mayor que la Máxima 13.7 10-05-1952 00:00 14.0 -- 13.7 2014-10-01 12:23:00
2 1952-10-09 00:00:00 Temperatura 15.4 del 08-10-1952 17:00, Mayor que la Máxima 15.3 09-10-1952 00:00 15.4 -- 15.3 2014-10-10 14:46:00
2 1952-10-25 00:00:00 Temperatura 15.5 del 24-10-1952 21:00, Mayor que la Máxima 15.4 25-10-1952 00:00 15.5 -- 15.4 2014-10-10 14:46:00
2 1952-11-08 00:00:00 Temperatura 18.0 del 07-11-1952 20:00, Mayor que la Máxima 14.3 08-11-1952 00:00 18.0 -- 14.3 2014-10-10 14:55:00
2 1952-11-27 00:00:00 Temperatura 16.7 del 26-11-1952 19:00, Mayor que la Máxima 16.6 27-11-1952 00:00 16.7 -- 16.6 2014-10-10 14:55:00
2 1952-12-07 00:00:00 Temperatura 19.8 del 06-12-1952 19:00, Mayor que la Máxima 19.5 07-12-1952 00:00 19.8 -- 19.5 2014-10-10 15:17:00
2 1952-12-08 00:00:00 Temperatura 19.2 del 07-12-1952 22:00, Mayor que la Máxima 14.7 08-12-1952 00:00 19.2 -- 14.7 2014-10-10 15:17:00
2 1952-12-30 00:00:00 Temperatura 19.0 del 29-12-1952 20:00, Mayor que la Máxima 18.0 30-12-1952 00:00 19.0 -- 18.0 2014-10-10 15:17:00
2 1953-01-13 00:00:00 Temperatura 19.0 del 12-01-1953 16:00, Mayor que la Máxima 18.3 13-01-1953 00:00 19.0 -- 18.3 2013-10-10 20:13:00
2 1953-01-16 00:00:00 Temperatura 22.6 del 15-01-1953 20:00, Mayor que la Máxima 22.3 16-01-1953 00:00 22.6 -- 22.3 2013-10-10 20:16:00
2 1953-05-13 00:00:00 Temperatura 15.3 del 12-05-1953 18:00, Mayor que la Máxima 15.2 13-05-1953 00:00 15.3 -- 15.2 2013-10-14 12:42:00
2 1953-05-23 00:00:00 Temperatura 17.4 del 22-05-1953 17:00, Mayor que la Máxima 16.3 23-05-1953 00:00 17.4 -- 16.3 2013-10-14 12:51:00
2 1953-06-02 00:00:00 Temperatura 18.0 del 01-06-1953 18:00, Mayor que la Máxima 17.5 02-06-1953 00:00 18.0 -- 17.5 2013-10-14 14:33:00
2 1953-07-05 00:00:00 Temperatura 16.0 del 04-07-1953 18:00, Mayor que la Máxima 14.8 05-07-1953 00:00 16.0 -- 14.8 2013-11-05 15:00:00
2 1953-11-04 00:00:00 Temperatura 17.7 del 03-11-1953 19:00, Mayor que la Máxima 16.2 04-11-1953 00:00 17.7 -- 16.2 2013-11-05 20:32:00
2 1953-11-07 00:00:00 Temperatura 17.6 del 06-11-1953 17:00, Mayor que la Máxima 15.6 07-11-1953 00:00 17.6 -- 15.6 2013-11-05 20:33:00
2 1953-11-12 00:00:00 Temperatura 18.4 del 11-11-1953 15:00, Mayor que la Máxima 16.3 12-11-1953 00:00 18.4 -- 16.3 2013-11-05 20:35:00
2 1953-11-16 00:00:00 Temperatura 17.6 del 15-11-1953 16:00, Mayor que la Máxima 16.3 16-11-1953 00:00 17.6 -- 16.3 2013-11-05 20:36:00
2 1953-11-27 00:00:00 Temperatura 18.8 del 26-11-1953 17:00, Mayor que la Máxima 18.4 27-11-1953 00:00 18.8 -- 18.4 2013-11-05 20:41:00
2 1953-11-28 00:00:00 Temperatura 18.0 del 27-11-1953 15:00, Mayor que la Máxima 17.3 28-11-1953 00:00 18.0 -- 17.3 2013-11-05 20:41:00
2 1953-11-30 00:00:00 Temperatura 18.0 del 29-11-1953 16:00, Mayor que la Máxima 17.6 30-11-1953 00:00 18.0 -- 17.6 2013-11-05 20:42:00
2 1955-02-07 00:00:00 Temperatura 26.0 del 06-02-1955 18:00, Mayor que la Máxima 20.3 07-02-1955 00:00 26.0 -- 20.3 2013-05-08 01:23:00
2 1955-03-10 00:00:00 Temperatura 15.4 del 09-03-1955 21:00, Mayor que la Máxima 7.0 10-03-1955 00:00 15.4 -- 7.0 2013-05-08 01:23:00
2 1955-06-30 00:00:00 Temperatura 11.7 del 29-06-1955 21:00, Mayor que la Máxima 11.5 30-06-1955 00:00 11.7 -- 11.5 2013-05-08 01:24:00
2 1955-07-31 00:00:00 Temperatura 14.3 del 30-07-1955 18:00, Mayor que la Máxima 14.1 31-07-1955 00:00 14.3 -- 14.1 2013-05-08 01:24:00
2 1956-04-04 00:00:00 Temperatura 16.4 del 03-04-1956 18:00, Mayor que la Máxima 16.3 04-04-1956 00:00 16.4 -- 16.3 2013-05-08 01:24:00
2 1956-06-02 00:00:00 Temperatura 16.0 del 01-06-1956 18:00, Mayor que la Máxima 1.7 02-06-1956 00:00 16.0 -- 1.7 2013-05-08 01:24:00
2 1957-06-25 00:00:00 Temperatura 15.4 del 24-06-1957 21:00, Mayor que la Máxima 15.3 25-06-1957 00:00 15.4 -- 15.3 2013-05-08 01:24:00
2 1957-08-04 00:00:00 Temperatura 14.9 del 03-08-1957 21:00, Mayor que la Máxima 14.8 04-08-1957 00:00 14.9 -- 14.8 2013-05-08 01:24:00
2 1957-08-05 00:00:00 Temperatura 18.0 del 04-08-1957 21:00, Mayor que la Máxima 17.1 05-08-1957 00:00 18.0 -- 17.1 2013-05-08 01:24:00
2 1957-08-12 00:00:00 Temperatura 13.2 del 11-08-1957 18:00, Mayor que la Máxima 1.5 12-08-1957 00:00 13.2 -- 1.5 2013-05-08 01:24:00
2 1957-08-21 00:00:00 Temperatura 15.8 del 20-08-1957 18:00, Mayor que la Máxima 15.5 21-08-1957 00:00 15.8 -- 15.5 2013-05-08 01:24:00
2 1957-08-24 00:00:00 Temperatura 14.0 del 23-08-1957 15:00, Mayor que la Máxima 1.4 24-08-1957 00:00 14.0 -- 1.4 2013-05-08 01:24:00
2 1957-08-30 00:00:00 Temperatura 14.0 del 29-08-1957 15:00, Mayor que la Máxima 1.6 30-08-1957 00:00 14.0 -- 1.6 2013-05-08 01:24:00
2 1957-09-12 00:00:00 Temperatura 14.0 del 11-09-1957 18:00, Mayor que la Máxima 13.6 12-09-1957 00:00 14.0 -- 13.6 2013-05-08 01:24:00
2 1958-08-10 00:00:00 Temperatura 14.3 del 09-08-1958 18:00, Mayor que la Máxima 14.2 10-08-1958 00:00 14.3 -- 14.2 2013-05-08 01:25:00
2 1958-09-11 00:00:00 Temperatura 15.2 del 10-09-1958 18:00, Mayor que la Máxima 14.8 11-09-1958 00:00 15.2 -- 14.8 2013-05-08 01:25:00
2 1958-10-24 00:00:00 Temperatura 17.7 del 23-10-1958 15:00, Mayor que la Máxima 17.6 24-10-1958 00:00 17.7 -- 17.6 2013-05-08 01:25:00
2 1958-12-21 00:00:00 Temperatura 18.5 del 20-12-1958 21:00, Mayor que la Máxima 18.3 21-12-1958 00:00 18.5 -- 18.3 2013-05-08 01:25:00
2 1959-01-30 00:00:00 Temperatura 21.6 del 29-01-1959 21:00, Mayor que la Máxima 21.2 30-01-1959 00:00 21.6 -- 21.2 2013-05-08 01:25:00
2 1959-03-06 00:00:00 Temperatura 19.8 del 05-03-1959 18:00, Mayor que la Máxima 19.0 06-03-1959 00:00 19.8 -- 19.0 2013-05-08 01:25:00
2 1959-03-13 00:00:00 Temperatura 21.8 del 12-03-1959 15:00, Mayor que la Máxima 21.3 13-03-1959 00:00 21.8 -- 21.3 2013-05-08 01:25:00
2 1959-04-08 00:00:00 Temperatura 16.4 del 07-04-1959 21:00, Mayor que la Máxima 16.2 08-04-1959 00:00 16.4 -- 16.2 2013-05-08 01:25:00
2 1959-04-15 00:00:00 Temperatura 18.0 del 14-04-1959 18:00, Mayor que la Máxima 17.8 15-04-1959 00:00 18.0 -- 17.8 2013-05-08 01:25:00
2 1959-06-30 00:00:00 Temperatura 11.9 del 29-06-1959 18:00, Mayor que la Máxima 11.8 30-06-1959 00:00 11.9 -- 11.8 2013-05-08 01:25:00
2 1959-07-19 00:00:00 Temperatura 13.6 del 18-07-1959 21:00, Mayor que la Máxima 13.5 19-07-1959 00:00 13.6 -- 13.5 2013-05-08 01:25:00
2 1959-08-08 00:00:00 Temperatura 15.4 del 07-08-1959 18:00, Mayor que la Máxima 15.0 08-08-1959 00:00 15.4 -- 15.0 2013-05-08 01:25:00
2 1959-08-14 00:00:00 Temperatura 13.8 del 13-08-1959 18:00, Mayor que la Máxima 13.6 14-08-1959 00:00 13.8 -- 13.6 2013-05-08 01:25:00
2 1960-01-09 00:00:00 Temperatura 21.4 del 08-01-1960 18:00, Mayor que la Máxima 21.3 09-01-1960 00:00 21.4 -- 21.3 2013-05-08 01:25:00
2 1960-02-07 00:00:00 Temperatura 21.2 del 06-02-1960 18:00, Mayor que la Máxima 20.9 07-02-1960 00:00 21.2 -- 20.9 2013-05-08 01:25:00
2 1960-03-05 00:00:00 Temperatura 18.5 del 04-03-1960 21:00, Mayor que la Máxima 18.4 05-03-1960 00:00 18.5 -- 18.4 2013-05-08 01:25:00
2 1960-03-08 00:00:00 Temperatura 20.7 del 07-03-1960 15:00, Mayor que la Máxima 20.4 08-03-1960 00:00 20.7 -- 20.4 2013-05-08 01:25:00
2 1960-04-26 00:00:00 Temperatura 15.2 del 25-04-1960 18:00, Mayor que la Máxima 14.8 26-04-1960 00:00 15.2 -- 14.8 2013-05-08 01:25:00
2 1960-05-31 00:00:00 Temperatura 11.4 del 30-05-1960 18:00, Mayor que la Máxima 11.1 31-05-1960 00:00 11.4 -- 11.1 2013-05-08 01:25:00
2 1960-07-05 00:00:00 Temperatura 13.1 del 04-07-1960 21:00, Mayor que la Máxima 13.0 05-07-1960 00:00 13.1 -- 13.0 2013-05-08 01:25:00
2 1960-08-18 00:00:00 Temperatura 13.0 del 17-08-1960 18:00, Mayor que la Máxima 12.9 18-08-1960 00:00 13.0 -- 12.9 2013-05-08 01:25:00
2 1961-03-02 00:00:00 Temperatura 17.8 del 01-03-1961 21:00, Mayor que la Máxima 11.8 02-03-1961 00:00 17.8 -- 11.8 2013-05-08 01:25:00
2 1961-03-15 00:00:00 Temperatura 26.1 del 14-03-1961 21:00, Mayor que la Máxima 21.6 15-03-1961 00:00 26.1 -- 21.6 2013-05-08 01:25:00
2 1961-06-04 00:00:00 Temperatura 15.0 del 03-06-1961 21:00, Mayor que la Máxima 14.6 04-06-1961 00:00 15.0 -- 14.6 2013-05-08 01:26:00
2 1961-11-07 00:00:00 Temperatura 15.2 del 06-11-1961 18:00, Mayor que la Máxima 15.1 07-11-1961 00:00 15.2 -- 15.1 2013-05-08 01:26:00
2 1961-11-19 00:00:00 Temperatura 16.2 del 18-11-1961 15:00, Mayor que la Máxima 16.0 19-11-1961 00:00 16.2 -- 16.0 2013-05-08 01:26:00
2 1962-02-04 00:00:00 Temperatura 19.0 del 03-02-1962 21:00, Mayor que la Máxima 2.0 04-02-1962 00:00 19.0 -- 2.0 2013-05-08 01:26:00
2 1962-03-29 00:00:00 Temperatura 19.3 del 28-03-1962 18:00, Mayor que la Máxima 19.1 29-03-1962 00:00 19.3 -- 19.1 2013-05-08 01:26:00
2 1962-08-08 00:00:00 Temperatura 14.1 del 07-08-1962 21:00, Mayor que la Máxima 14.0 08-08-1962 00:00 14.1 -- 14.0 2013-05-08 01:26:00
2 1962-11-08 00:00:00 Temperatura 17.8 del 07-11-1962 18:00, Mayor que la Máxima 17.6 08-11-1962 00:00 17.8 -- 17.6 2013-05-08 01:26:00
2 1963-03-26 00:00:00 Temperatura 17.6 del 25-03-1963 18:00, Mayor que la Máxima 17.0 26-03-1963 00:00 17.6 -- 17.0 2013-05-08 01:26:00
2 1963-04-05 00:00:00 Temperatura 19.8 del 04-04-1963 15:00, Mayor que la Máxima 15.2 05-04-1963 00:00 19.8 -- 15.2 2013-05-08 01:26:00
2 1963-05-06 00:00:00 Temperatura 17.5 del 05-05-1963 21:00, Mayor que la Máxima 17.0 06-05-1963 00:00 17.5 -- 17.0 2013-05-08 01:26:00
2 1963-05-12 00:00:00 Temperatura 15.5 del 11-05-1963 18:00, Mayor que la Máxima 15.0 12-05-1963 00:00 15.5 -- 15.0 2013-05-08 01:26:00
2 1963-05-26 00:00:00 Temperatura 14.8 del 25-05-1963 21:00, Mayor que la Máxima 14.0 26-05-1963 00:00 14.8 -- 14.0 2013-05-08 01:26:00
2 1963-06-16 00:00:00 Temperatura 12.7 del 15-06-1963 18:00, Mayor que la Máxima 12.6 16-06-1963 00:00 12.7 -- 12.6 2013-05-08 01:26:00
2 1963-07-02 00:00:00 Temperatura 14.0 del 01-07-1963 15:00, Mayor que la Máxima 13.9 02-07-1963 00:00 14.0 -- 13.9 2013-05-08 01:26:00
2 1963-07-13 00:00:00 Temperatura 15.4 del 12-07-1963 18:00, Mayor que la Máxima 15.2 13-07-1963 00:00 15.4 -- 15.2 2013-05-08 01:26:00
2 1963-07-14 00:00:00 Temperatura 16.4 del 13-07-1963 18:00, Mayor que la Máxima 16.2 14-07-1963 00:00 16.4 -- 16.2 2013-05-08 01:26:00
2 1963-07-16 00:00:00 Temperatura 14.8 del 15-07-1963 21:00, Mayor que la Máxima 14.2 16-07-1963 00:00 14.8 -- 14.2 2013-05-08 01:26:00
2 1963-08-22 00:00:00 Temperatura 14.3 del 21-08-1963 18:00, Mayor que la Máxima 14.0 22-08-1963 00:00 14.3 -- 14.0 2013-05-08 01:26:00
2 1963-09-15 00:00:00 Temperatura 16.8 del 14-09-1963 18:00, Mayor que la Máxima 16.0 15-09-1963 00:00 16.8 -- 16.0 2013-05-08 01:26:00
2 1963-09-19 00:00:00 Temperatura 14.2 del 18-09-1963 18:00, Mayor que la Máxima 14.0 19-09-1963 00:00 14.2 -- 14.0 2013-05-08 01:26:00
2 1963-10-28 00:00:00 Temperatura 16.7 del 27-10-1963 18:00, Mayor que la Máxima 16.6 28-10-1963 00:00 16.7 -- 16.6 2013-05-08 01:26:00
2 1963-11-01 00:00:00 Temperatura 19.0 del 31-10-1963 15:00, Mayor que la Máxima 18.2 01-11-1963 00:00 19.0 -- 18.2 2013-05-08 01:26:00
2 1964-02-10 00:00:00 Temperatura 20.6 del 09-02-1964 18:00, Mayor que la Máxima 20.5 10-02-1964 00:00 20.6 -- 20.5 2013-05-08 01:26:00
2 1964-05-05 00:00:00 Temperatura 17.1 del 04-05-1964 21:00, Mayor que la Máxima 17.0 05-05-1964 00:00 17.1 -- 17.0 2013-05-08 01:26:00
2 1964-05-24 00:00:00 Temperatura 13.4 del 23-05-1964 21:00, Mayor que la Máxima 13.0 24-05-1964 00:00 13.4 -- 13.0 2013-05-08 01:26:00
2 1964-05-30 00:00:00 Temperatura 22.8 del 29-05-1964 18:00, Mayor que la Máxima 13.4 30-05-1964 00:00 22.8 -- 13.4 2013-05-08 01:26:00
2 1964-06-05 00:00:00 Temperatura 14.8 del 04-06-1964 18:00, Mayor que la Máxima 14.0 05-06-1964 00:00 14.8 -- 14.0 2013-05-08 01:26:00
2 1964-06-16 00:00:00 Temperatura 16.2 del 15-06-1964 21:00, Mayor que la Máxima 15.2 16-06-1964 00:00 16.2 -- 15.2 2013-05-08 01:26:00
2 1964-06-20 00:00:00 Temperatura 14.6 del 19-06-1964 18:00, Mayor que la Máxima 14.4 20-06-1964 00:00 14.6 -- 14.4 2013-05-08 01:26:00
2 1964-06-21 00:00:00 Temperatura 13.2 del 20-06-1964 21:00, Mayor que la Máxima 13.0 21-06-1964 00:00 13.2 -- 13.0 2013-05-08 01:26:00
2 1964-07-05 00:00:00 Temperatura 12.0 del 04-07-1964 21:00, Mayor que la Máxima 11.0 05-07-1964 00:00 12.0 -- 11.0 2013-05-08 01:27:00
2 1964-07-27 00:00:00 Temperatura 11.9 del 26-07-1964 21:00, Mayor que la Máxima 11.8 27-07-1964 00:00 11.9 -- 11.8 2013-05-08 01:27:00
2 1964-08-04 00:00:00 Temperatura 12.6 del 03-08-1964 18:00, Mayor que la Máxima 1.4 04-08-1964 00:00 12.6 -- 1.4 2013-05-08 01:27:00
2 1964-08-16 00:00:00 Temperatura 12.2 del 15-08-1964 18:00, Mayor que la Máxima 12.0 16-08-1964 00:00 12.2 -- 12.0 2013-05-08 01:27:00
2 1964-08-21 00:00:00 Temperatura 13.8 del 20-08-1964 21:00, Mayor que la Máxima 13.6 21-08-1964 00:00 13.8 -- 13.6 2013-05-08 01:27:00
2 1964-09-06 00:00:00 Temperatura 16.0 del 05-09-1964 18:00, Mayor que la Máxima 15.0 06-09-1964 00:00 16.0 -- 15.0 2013-05-08 01:27:00
2 1964-09-13 00:00:00 Temperatura 19.6 del 12-09-1964 15:00, Mayor que la Máxima 16.0 13-09-1964 00:00 19.6 -- 16.0 2013-05-08 01:27:00
2 1964-09-15 00:00:00 Temperatura 13.2 del 14-09-1964 21:00, Mayor que la Máxima 13.0 15-09-1964 00:00 13.2 -- 13.0 2013-05-08 01:27:00
2 1964-09-28 00:00:00 Temperatura 14.2 del 27-09-1964 15:00, Mayor que la Máxima 14.0 28-09-1964 00:00 14.2 -- 14.0 2013-05-08 01:27:00
2 1964-10-16 00:00:00 Temperatura 19.4 del 15-10-1964 21:00, Mayor que la Máxima 19.0 16-10-1964 00:00 19.4 -- 19.0 2013-05-08 01:27:00
2 1964-10-17 00:00:00 Temperatura 16.8 del 16-10-1964 18:00, Mayor que la Máxima 16.0 17-10-1964 00:00 16.8 -- 16.0 2013-05-08 01:27:00
2 1964-11-03 00:00:00 Temperatura 16.3 del 02-11-1964 15:00, Mayor que la Máxima 15.5 03-11-1964 00:00 16.3 -- 15.5 2013-05-08 01:27:00
2 1964-11-07 00:00:00 Temperatura 17.1 del 06-11-1964 21:00, Mayor que la Máxima 17.0 07-11-1964 00:00 17.1 -- 17.0 2013-05-08 01:27:00
2 1964-11-14 00:00:00 Temperatura 22.6 del 13-11-1964 18:00, Mayor que la Máxima 22.4 14-11-1964 00:00 22.6 -- 22.4 2013-05-08 01:27:00
2 1964-11-15 00:00:00 Temperatura 16.8 del 14-11-1964 15:00, Mayor que la Máxima 16.4 15-11-1964 00:00 16.8 -- 16.4 2013-05-08 01:27:00
2 1964-11-30 00:00:00 Temperatura 19.2 del 29-11-1964 18:00, Mayor que la Máxima 19.0 30-11-1964 00:00 19.2 -- 19.0 2013-05-08 01:27:00
2 1965-02-03 00:00:00 Temperatura 21.8 del 02-02-1965 18:00, Mayor que la Máxima 21.6 03-02-1965 00:00 21.8 -- 21.6 2013-05-08 01:27:00
2 1965-04-08 00:00:00 Temperatura 19.9 del 07-04-1965 18:00, Mayor que la Máxima 19.4 08-04-1965 00:00 19.9 -- 19.4 2013-05-08 01:27:00
2 1965-05-06 00:00:00 Temperatura 16.4 del 05-05-1965 21:00, Mayor que la Máxima 16.2 06-05-1965 00:00 16.4 -- 16.2 2013-05-08 01:27:00
2 1965-05-12 00:00:00 Temperatura 13.2 del 11-05-1965 21:00, Mayor que la Máxima 12.8 12-05-1965 00:00 13.2 -- 12.8 2013-05-08 01:27:00
2 1965-06-22 00:00:00 Temperatura 18.4 del 21-06-1965 18:00, Mayor que la Máxima 17.0 22-06-1965 00:00 18.4 -- 17.0 2013-05-08 01:27:00
2 1965-07-11 00:00:00 Temperatura 16.3 del 10-07-1965 21:00, Mayor que la Máxima 11.2 11-07-1965 00:00 16.3 -- 11.2 2013-05-08 01:27:00
2 1965-07-29 00:00:00 Temperatura 15.3 del 28-07-1965 18:00, Mayor que la Máxima 15.0 29-07-1965 00:00 15.3 -- 15.0 2013-05-08 01:27:00
2 1965-08-07 00:00:00 Temperatura 13.5 del 06-08-1965 18:00, Mayor que la Máxima 12.8 07-08-1965 00:00 13.5 -- 12.8 2013-05-08 01:27:00
2 1965-08-21 00:00:00 Temperatura 17.2 del 20-08-1965 18:00, Mayor que la Máxima 17.0 21-08-1965 00:00 17.2 -- 17.0 2013-05-08 01:27:00
2 1965-09-09 00:00:00 Temperatura 18.8 del 08-09-1965 21:00, Mayor que la Máxima 15.4 09-09-1965 00:00 18.8 -- 15.4 2013-05-08 01:27:00
2 1965-09-15 00:00:00 Temperatura 16.2 del 14-09-1965 21:00, Mayor que la Máxima 16.0 15-09-1965 00:00 16.2 -- 16.0 2013-05-08 01:27:00
2 1965-09-23 00:00:00 Temperatura 12.6 del 22-09-1965 18:00, Mayor que la Máxima 12.5 23-09-1965 00:00 12.6 -- 12.5 2013-05-08 01:27:00
2 1965-09-28 00:00:00 Temperatura 13.2 del 27-09-1965 21:00, Mayor que la Máxima 13.0 28-09-1965 00:00 13.2 -- 13.0 2013-05-08 01:27:00
2 1965-10-29 00:00:00 Temperatura 17.1 del 28-10-1965 18:00, Mayor que la Máxima 17.0 29-10-1965 00:00 17.1 -- 17.0 2013-05-08 01:27:00
2 1965-11-08 00:00:00 Temperatura 17.0 del 07-11-1965 18:00, Mayor que la Máxima 16.0 08-11-1965 00:00 17.0 -- 16.0 2013-05-08 01:27:00
2 1965-12-04 00:00:00 Temperatura 18.2 del 03-12-1965 18:00, Mayor que la Máxima 18.0 04-12-1965 00:00 18.2 -- 18.0 2013-05-08 01:27:00
2 1966-02-01 00:00:00 Temperatura 19.2 del 31-01-1966 18:00, Mayor que la Máxima 19.0 01-02-1966 00:00 19.2 -- 19.0 2013-05-08 01:27:00
2 1966-02-26 00:00:00 Temperatura 17.2 del 25-02-1966 21:00, Mayor que la Máxima 17.0 26-02-1966 00:00 17.2 -- 17.0 2013-05-08 01:27:00
2 1966-04-01 00:00:00 Temperatura 17.7 del 31-03-1966 18:00, Mayor que la Máxima 17.5 01-04-1966 00:00 17.7 -- 17.5 2013-05-08 01:27:00
2 1966-04-06 00:00:00 Temperatura 17.1 del 05-04-1966 21:00, Mayor que la Máxima 17.0 06-04-1966 00:00 17.1 -- 17.0 2013-05-08 01:27:00
2 1966-05-13 00:00:00 Temperatura 14.3 del 12-05-1966 18:00, Mayor que la Máxima 14.0 13-05-1966 00:00 14.3 -- 14.0 2013-05-08 01:27:00
2 1966-05-15 00:00:00 Temperatura 15.0 del 14-05-1966 21:00, Mayor que la Máxima 11.0 15-05-1966 00:00 15.0 -- 11.0 2013-05-08 01:27:00
2 1966-05-25 00:00:00 Temperatura 16.2 del 24-05-1966 18:00, Mayor que la Máxima 16.0 25-05-1966 00:00 16.2 -- 16.0 2013-05-08 01:27:00
2 1966-06-06 00:00:00 Temperatura 12.2 del 05-06-1966 21:00, Mayor que la Máxima 12.1 06-06-1966 00:00 12.2 -- 12.1 2013-05-08 01:27:00
2 1966-07-09 00:00:00 Temperatura 15.4 del 08-07-1966 18:00, Mayor que la Máxima 15.0 09-07-1966 00:00 15.4 -- 15.0 2013-05-08 01:27:00
2 1966-07-22 00:00:00 Temperatura 23.8 del 21-07-1966 18:00, Mayor que la Máxima 13.1 22-07-1966 00:00 23.8 -- 13.1 2013-05-08 01:27:00
2 1966-08-24 00:00:00 Temperatura 18.0 del 23-08-1966 21:00, Mayor que la Máxima 9.1 24-08-1966 00:00 18.0 -- 9.1 2013-05-08 01:27:00
2 1966-08-28 00:00:00 Temperatura 15.8 del 27-08-1966 18:00, Mayor que la Máxima 15.0 28-08-1966 00:00 15.8 -- 15.0 2013-05-08 01:27:00
2 1966-10-19 00:00:00 Temperatura 18.6 del 18-10-1966 18:00, Mayor que la Máxima 18.5 19-10-1966 00:00 18.6 -- 18.5 2013-05-08 01:27:00
2 1966-10-22 00:00:00 Temperatura 16.3 del 21-10-1966 15:00, Mayor que la Máxima 15.6 22-10-1966 00:00 16.3 -- 15.6 2013-05-08 01:27:00
2 1967-02-17 00:00:00 Temperatura 18.4 del 16-02-1967 18:00, Mayor que la Máxima 17.0 17-02-1967 00:00 18.4 -- 17.0 2013-05-08 01:27:00
2 1967-02-26 00:00:00 Temperatura 18.8 del 25-02-1967 21:00, Mayor que la Máxima 17.9 26-02-1967 00:00 18.8 -- 17.9 2013-05-08 01:27:00
2 1967-04-28 00:00:00 Temperatura 15.4 del 27-04-1967 18:00, Mayor que la Máxima 15.0 28-04-1967 00:00 15.4 -- 15.0 2013-05-08 01:27:00
2 1967-07-06 00:00:00 Temperatura 14.1 del 05-07-1967 18:00, Mayor que la Máxima 14.0 06-07-1967 00:00 14.1 -- 14.0 2013-05-08 01:28:00
2 1967-08-08 00:00:00 Temperatura 13.2 del 07-08-1967 21:00, Mayor que la Máxima 13.0 08-08-1967 00:00 13.2 -- 13.0 2013-05-08 01:28:00
2 1967-08-10 00:00:00 Temperatura 12.5 del 09-08-1967 18:00, Mayor que la Máxima 12.4 10-08-1967 00:00 12.5 -- 12.4 2013-05-08 01:28:00
2 1967-12-12 00:00:00 Temperatura 18.0 del 11-12-1967 18:00, Mayor que la Máxima 17.0 12-12-1967 00:00 18.0 -- 17.0 2013-05-08 01:28:00
2 1967-12-14 00:00:00 Temperatura 20.4 del 13-12-1967 21:00, Mayor que la Máxima 20.0 14-12-1967 00:00 20.4 -- 20.0 2013-05-08 01:28:00
2 1968-01-03 00:00:00 Temperatura 20.3 del 02-01-1968 21:00, Mayor que la Máxima 20.0 03-01-1968 00:00 20.3 -- 20.0 2013-05-08 01:28:00
2 1968-01-21 00:00:00 Temperatura 29.9 del 20-01-1968 18:00, Mayor que la Máxima 21.2 21-01-1968 00:00 29.9 -- 21.2 2013-05-08 01:28:00
2 1968-02-05 00:00:00 Temperatura 21.6 del 04-02-1968 21:00, Mayor que la Máxima 21.0 05-02-1968 00:00 21.6 -- 21.0 2013-05-08 01:28:00
2 1968-04-03 00:00:00 Temperatura 19.0 del 02-04-1968 18:00, Mayor que la Máxima 16.0 03-04-1968 00:00 19.0 -- 16.0 2013-05-08 01:28:00
2 1968-04-08 00:00:00 Temperatura 18.5 del 08-04-1968 00:00, Mayor que la Máxima 13.2 08-04-1968 00:00 18.5 -- 13.2 2013-05-08 01:28:00
2 1968-04-26 00:00:00 Temperatura 15.4 del 25-04-1968 21:00, Mayor que la Máxima 15.0 26-04-1968 00:00 15.4 -- 15.0 2013-05-08 01:28:00
2 1968-04-30 00:00:00 Temperatura 18.0 del 29-04-1968 21:00, Mayor que la Máxima 16.0 30-04-1968 00:00 18.0 -- 16.0 2013-05-08 01:28:00
2 1968-05-06 00:00:00 Temperatura 14.0 del 05-05-1968 18:00, Mayor que la Máxima 13.8 06-05-1968 00:00 14.0 -- 13.8 2013-05-08 01:28:00
2 1968-08-21 00:00:00 Temperatura 15.4 del 20-08-1968 18:00, Mayor que la Máxima 13.0 21-08-1968 00:00 15.4 -- 13.0 2013-05-08 01:28:00
2 1968-09-10 00:00:00 Temperatura 22.2 del 09-09-1968 18:00, Mayor que la Máxima 15.0 10-09-1968 00:00 22.2 -- 15.0 2013-05-08 01:28:00
2 1968-09-11 00:00:00 Temperatura 15.0 del 10-09-1968 15:00, Mayor que la Máxima 14.9 11-09-1968 00:00 15.0 -- 14.9 2013-05-08 01:28:00
2 1968-12-20 00:00:00 Temperatura 18.2 del 19-12-1968 21:00, Mayor que la Máxima 18.0 20-12-1968 00:00 18.2 -- 18.0 2013-05-08 01:28:00
2 1969-01-10 00:00:00 Temperatura 21.2 del 09-01-1969 18:00, Mayor que la Máxima 21.0 10-01-1969 00:00 21.2 -- 21.0 2013-05-08 01:28:00
2 1969-02-19 00:00:00 Temperatura 20.4 del 18-02-1969 23:00, Mayor que la Máxima 20.2 19-02-1969 00:00 20.4 -- 20.2 2013-05-08 01:28:00
2 1969-02-24 00:00:00 Temperatura 19.0 del 23-02-1969 19:00, Mayor que la Máxima 18.9 24-02-1969 00:00 19.0 -- 18.9 2013-05-08 01:28:00
2 1969-04-02 00:00:00 Temperatura 17.3 del 01-04-1969 20:00, Mayor que la Máxima 17.0 02-04-1969 00:00 17.3 -- 17.0 2013-05-08 01:28:00
2 1969-04-08 00:00:00 Temperatura 15.5 del 07-04-1969 18:00, Mayor que la Máxima 15.0 08-04-1969 00:00 15.5 -- 15.0 2013-05-08 01:28:00
2 1969-04-26 00:00:00 Temperatura 17.5 del 25-04-1969 19:00, Mayor que la Máxima 11.6 26-04-1969 00:00 17.5 -- 11.6 2013-05-08 01:28:00
2 1969-04-27 00:00:00 Temperatura 17.2 del 26-04-1969 19:00, Mayor que la Máxima 17.0 27-04-1969 00:00 17.2 -- 17.0 2013-05-08 01:28:00
2 1969-05-12 00:00:00 Temperatura 17.8 del 11-05-1969 17:00, Mayor que la Máxima 17.7 12-05-1969 00:00 17.8 -- 17.7 2013-05-08 01:28:00
2 1969-07-18 00:00:00 Temperatura 15.0 del 17-07-1969 20:00, Mayor que la Máxima 14.9 18-07-1969 00:00 15.0 -- 14.9 2013-05-08 01:28:00
2 1969-07-31 00:00:00 Temperatura 13.2 del 30-07-1969 17:00, Mayor que la Máxima 13.0 31-07-1969 00:00 13.2 -- 13.0 2013-05-08 01:28:00
2 1969-08-05 00:00:00 Temperatura 12.6 del 04-08-1969 17:00, Mayor que la Máxima 12.0 05-08-1969 00:00 12.6 -- 12.0 2013-05-08 01:28:00
2 1969-08-15 00:00:00 Temperatura 16.4 del 14-08-1969 16:00, Mayor que la Máxima 15.0 15-08-1969 00:00 16.4 -- 15.0 2013-05-08 01:28:00
2 1969-08-19 00:00:00 Temperatura 15.0 del 18-08-1969 17:00, Mayor que la Máxima 11.3 19-08-1969 00:00 15.0 -- 11.3 2013-05-08 01:28:00
2 1969-08-21 00:00:00 Temperatura 12.2 del 20-08-1969 22:00, Mayor que la Máxima 12.0 21-08-1969 00:00 12.2 -- 12.0 2013-05-08 01:28:00
2 1969-08-24 00:00:00 Temperatura 16.3 del 23-08-1969 17:00, Mayor que la Máxima 15.0 24-08-1969 00:00 16.3 -- 15.0 2013-05-08 01:28:00
2 1969-08-28 00:00:00 Temperatura 17.3 del 27-08-1969 23:00, Mayor que la Máxima 16.4 28-08-1969 00:00 17.3 -- 16.4 2013-05-08 01:28:00
2 1969-09-04 00:00:00 Temperatura 17.2 del 03-09-1969 16:00, Mayor que la Máxima 16.8 04-09-1969 00:00 17.2 -- 16.8 2013-05-08 01:28:00
2 1969-09-06 00:00:00 Temperatura 16.1 del 05-09-1969 18:00, Mayor que la Máxima 16.0 06-09-1969 00:00 16.1 -- 16.0 2013-05-08 01:28:00
2 1969-09-19 00:00:00 Temperatura 16.0 del 18-09-1969 18:00, Mayor que la Máxima 15.4 19-09-1969 00:00 16.0 -- 15.4 2013-05-08 01:28:00
2 1969-09-26 00:00:00 Temperatura 17.2 del 25-09-1969 17:00, Mayor que la Máxima 17.0 26-09-1969 00:00 17.2 -- 17.0 2013-05-08 01:28:00
2 1969-10-04 00:00:00 Temperatura 15.0 del 03-10-1969 15:00, Mayor que la Máxima 14.6 04-10-1969 00:00 15.0 -- 14.6 2013-05-08 01:28:00
2 1969-10-06 00:00:00 Temperatura 14.7 del 05-10-1969 21:00, Mayor que la Máxima 14.6 06-10-1969 00:00 14.7 -- 14.6 2013-05-08 01:28:00
2 1969-10-09 00:00:00 Temperatura 15.4 del 08-10-1969 20:00, Mayor que la Máxima 15.0 09-10-1969 00:00 15.4 -- 15.0 2013-05-08 01:28:00
2 1969-10-22 00:00:00 Temperatura 16.2 del 21-10-1969 16:00, Mayor que la Máxima 16.0 22-10-1969 00:00 16.2 -- 16.0 2013-05-08 01:28:00
2 1969-11-29 00:00:00 Temperatura 19.4 del 28-11-1969 17:00, Mayor que la Máxima 19.0 29-11-1969 00:00 19.4 -- 19.0 2013-05-08 01:28:00
2 1969-12-05 00:00:00 Temperatura 18.8 del 04-12-1969 21:00, Mayor que la Máxima 18.4 05-12-1969 00:00 18.8 -- 18.4 2013-05-08 01:28:00
2 1969-12-07 00:00:00 Temperatura 18.2 del 06-12-1969 19:00, Mayor que la Máxima 18.1 07-12-1969 00:00 18.2 -- 18.1 2013-05-08 01:28:00
2 1969-12-23 00:00:00 Temperatura 20.4 del 22-12-1969 21:00, Mayor que la Máxima 19.0 23-12-1969 00:00 20.4 -- 19.0 2013-05-08 01:28:00
2 1969-12-28 00:00:00 Temperatura 18.0 del 27-12-1969 18:00, Mayor que la Máxima 8.4 28-12-1969 00:00 18.0 -- 8.4 2013-05-08 01:28:00
2 1970-02-11 00:00:00 Temperatura 18.6 del 10-02-1970 22:00, Mayor que la Máxima 18.4 11-02-1970 00:00 18.6 -- 18.4 2013-05-08 01:28:00
2 1970-04-19 00:00:00 Temperatura 19.8 del 18-04-1970 20:00, Mayor que la Máxima 18.0 19-04-1970 00:00 19.8 -- 18.0 2013-05-08 01:28:00
2 1970-04-26 00:00:00 Temperatura 19.2 del 25-04-1970 16:00, Mayor que la Máxima 19.0 26-04-1970 00:00 19.2 -- 19.0 2013-05-08 01:28:00
2 1970-05-08 00:00:00 Temperatura 17.2 del 07-05-1970 20:00, Mayor que la Máxima 9.0 08-05-1970 00:00 17.2 -- 9.0 2013-05-08 01:28:00
2 1970-05-13 00:00:00 Temperatura 17.4 del 12-05-1970 19:00, Mayor que la Máxima 17.2 13-05-1970 00:00 17.4 -- 17.2 2013-05-08 01:28:00
2 1970-07-02 00:00:00 Temperatura 17.4 del 02-07-1970 00:00, Mayor que la Máxima 16.4 02-07-1970 00:00 17.4 -- 16.4 2013-05-08 01:29:00
2 1970-07-03 00:00:00 Temperatura 14.4 del 02-07-1970 21:00, Mayor que la Máxima 14.0 03-07-1970 00:00 14.4 -- 14.0 2013-05-08 01:29:00
2 1970-07-04 00:00:00 Temperatura 12.0 del 03-07-1970 16:00, Mayor que la Máxima 11.6 04-07-1970 00:00 12.0 -- 11.6 2013-05-08 01:29:00
2 1970-07-06 00:00:00 Temperatura 12.4 del 05-07-1970 20:00, Mayor que la Máxima 12.0 06-07-1970 00:00 12.4 -- 12.0 2013-05-08 01:29:00
2 1970-07-08 00:00:00 Temperatura 14.2 del 07-07-1970 20:00, Mayor que la Máxima 4.5 08-07-1970 00:00 14.2 -- 4.5 2013-05-08 01:29:00
2 1970-07-19 00:00:00 Temperatura 14.0 del 18-07-1970 18:00, Mayor que la Máxima 11.4 19-07-1970 00:00 14.0 -- 11.4 2013-05-08 01:29:00
2 1970-07-31 00:00:00 Temperatura 17.0 del 30-07-1970 15:00, Mayor que la Máxima 16.1 31-07-1970 00:00 17.0 -- 16.1 2013-05-08 01:29:00
2 1970-08-08 00:00:00 Temperatura 16.0 del 07-08-1970 19:00, Mayor que la Máxima 15.0 08-08-1970 00:00 16.0 -- 15.0 2013-05-08 01:29:00
2 1970-08-15 00:00:00 Temperatura 15.6 del 14-08-1970 19:00, Mayor que la Máxima 15.0 15-08-1970 00:00 15.6 -- 15.0 2013-05-08 01:29:00
2 1970-08-20 00:00:00 Temperatura 15.4 del 19-08-1970 17:00, Mayor que la Máxima 15.0 20-08-1970 00:00 15.4 -- 15.0 2013-05-08 01:29:00
2 1970-08-21 00:00:00 Temperatura 14.6 del 20-08-1970 16:00, Mayor que la Máxima 14.0 21-08-1970 00:00 14.6 -- 14.0 2013-05-08 01:29:00
2 1970-09-02 00:00:00 Temperatura 17.2 del 01-09-1970 18:00, Mayor que la Máxima 17.0 02-09-1970 00:00 17.2 -- 17.0 2013-05-08 01:29:00
2 1970-10-01 00:00:00 Temperatura 12.2 del 30-09-1970 21:00, Mayor que la Máxima 12.0 01-10-1970 00:00 12.2 -- 12.0 2013-05-08 01:29:00
2 1970-10-02 00:00:00 Temperatura 16.2 del 01-10-1970 20:00, Mayor que la Máxima 16.0 02-10-1970 00:00 16.2 -- 16.0 2013-05-08 01:29:00
2 1970-10-17 00:00:00 Temperatura 17.2 del 16-10-1970 19:00, Mayor que la Máxima 17.0 17-10-1970 00:00 17.2 -- 17.0 2013-05-08 01:29:00
2 1970-10-26 00:00:00 Temperatura 14.4 del 25-10-1970 19:00, Mayor que la Máxima 11.8 26-10-1970 00:00 14.4 -- 11.8 2013-05-08 01:29:00
2 1970-10-29 00:00:00 Temperatura 16.2 del 28-10-1970 20:00, Mayor que la Máxima 16.0 29-10-1970 00:00 16.2 -- 16.0 2013-05-08 01:29:00
2 1970-11-18 00:00:00 Temperatura 18.4 del 17-11-1970 16:00, Mayor que la Máxima 18.2 18-11-1970 00:00 18.4 -- 18.2 2013-05-08 01:29:00
2 1971-01-04 00:00:00 Temperatura 19.4 del 03-01-1971 16:00, Mayor que la Máxima 19.1 04-01-1971 00:00 19.4 -- 19.1 2013-05-08 01:29:00
2 1971-02-03 00:00:00 Temperatura 19.6 del 02-02-1971 21:00, Mayor que la Máxima 19.0 03-02-1971 00:00 19.6 -- 19.0 2013-05-08 01:29:00
2 1971-04-05 00:00:00 Temperatura 14.4 del 04-04-1971 20:00, Mayor que la Máxima 14.0 05-04-1971 00:00 14.4 -- 14.0 2013-05-08 01:29:00
2 1971-04-22 00:00:00 Temperatura 17.0 del 21-04-1971 20:00, Mayor que la Máxima 16.0 22-04-1971 00:00 17.0 -- 16.0 2013-05-08 01:29:00
2 1971-04-24 00:00:00 Temperatura 17.3 del 23-04-1971 22:00, Mayor que la Máxima 17.1 24-04-1971 00:00 17.3 -- 17.1 2013-05-08 01:29:00
2 1971-05-07 00:00:00 Temperatura 15.5 del 06-05-1971 18:00, Mayor que la Máxima 15.0 07-05-1971 00:00 15.5 -- 15.0 2013-05-08 01:29:00
2 1971-05-16 00:00:00 Temperatura 15.4 del 15-05-1971 19:00, Mayor que la Máxima 15.0 16-05-1971 00:00 15.4 -- 15.0 2013-05-08 01:29:00
2 1971-05-31 00:00:00 Temperatura 16.2 del 30-05-1971 19:00, Mayor que la Máxima 16.0 31-05-1971 00:00 16.2 -- 16.0 2013-05-08 01:29:00
2 1971-06-12 00:00:00 Temperatura 14.2 del 11-06-1971 18:00, Mayor que la Máxima 14.0 12-06-1971 00:00 14.2 -- 14.0 2013-05-08 01:29:00
2 1971-06-21 00:00:00 Temperatura 13.9 del 20-06-1971 17:00, Mayor que la Máxima 13.8 21-06-1971 00:00 13.9 -- 13.8 2013-05-08 01:29:00
2 1971-07-04 00:00:00 Temperatura 15.4 del 03-07-1971 19:00, Mayor que la Máxima 15.0 04-07-1971 00:00 15.4 -- 15.0 2013-05-08 01:29:00
2 1971-07-31 00:00:00 Temperatura 12.5 del 30-07-1971 20:00, Mayor que la Máxima 12.0 31-07-1971 00:00 12.5 -- 12.0 2013-05-08 01:29:00
2 1971-08-09 00:00:00 Temperatura 14.2 del 08-08-1971 18:00, Mayor que la Máxima 14.0 09-08-1971 00:00 14.2 -- 14.0 2013-05-08 01:29:00
2 1971-08-20 00:00:00 Temperatura 12.5 del 19-08-1971 14:00, Mayor que la Máxima 12.0 20-08-1971 00:00 12.5 -- 12.0 2013-05-08 01:29:00
2 1971-09-28 00:00:00 Temperatura 12.4 del 27-09-1971 18:00, Mayor que la Máxima 12.3 28-09-1971 00:00 12.4 -- 12.3 2013-05-08 01:29:00
2 1971-10-08 00:00:00 Temperatura 15.6 del 07-10-1971 20:00, Mayor que la Máxima 14.0 08-10-1971 00:00 15.6 -- 14.0 2013-05-08 01:29:00
2 1971-12-21 00:00:00 Temperatura 20.2 del 20-12-1971 17:00, Mayor que la Máxima 20.1 21-12-1971 00:00 20.2 -- 20.1 2013-05-08 01:29:00
2 1972-01-06 00:00:00 Temperatura 21.0 del 05-01-1972 16:00, Mayor que la Máxima 20.6 06-01-1972 00:00 21.0 -- 20.6 2013-05-08 01:29:00
2 1972-01-15 00:00:00 Temperatura 20.3 del 14-01-1972 17:00, Mayor que la Máxima 20.0 15-01-1972 00:00 20.3 -- 20.0 2013-05-08 01:29:00
2 1972-01-19 00:00:00 Temperatura 20.3 del 18-01-1972 21:00, Mayor que la Máxima 20.0 19-01-1972 00:00 20.3 -- 20.0 2013-05-08 01:29:00
2 1972-01-22 00:00:00 Temperatura 20.2 del 21-01-1972 21:00, Mayor que la Máxima 20.0 22-01-1972 00:00 20.2 -- 20.0 2013-05-08 01:29:00
2 1972-01-31 00:00:00 Temperatura 19.2 del 30-01-1972 19:00, Mayor que la Máxima 19.0 31-01-1972 00:00 19.2 -- 19.0 2013-05-08 01:29:00
2 1972-02-20 00:00:00 Temperatura 20.0 del 19-02-1972 18:00, Mayor que la Máxima 19.0 20-02-1972 00:00 20.0 -- 19.0 2013-05-08 01:29:00
2 1972-03-24 00:00:00 Temperatura 18.2 del 23-03-1972 17:00, Mayor que la Máxima 18.0 24-03-1972 00:00 18.2 -- 18.0 2013-05-08 01:29:00
2 1972-04-19 00:00:00 Temperatura 18.2 del 18-04-1972 20:00, Mayor que la Máxima 18.0 19-04-1972 00:00 18.2 -- 18.0 2013-05-08 01:29:00
2 1972-05-10 00:00:00 Temperatura 17.5 del 09-05-1972 22:00, Mayor que la Máxima 17.0 10-05-1972 00:00 17.5 -- 17.0 2013-05-08 01:29:00
2 1972-05-18 00:00:00 Temperatura 15.2 del 17-05-1972 18:00, Mayor que la Máxima 15.0 18-05-1972 00:00 15.2 -- 15.0 2013-05-08 01:29:00
2 1972-05-27 00:00:00 Temperatura 16.4 del 26-05-1972 21:00, Mayor que la Máxima 16.0 27-05-1972 00:00 16.4 -- 16.0 2013-05-08 01:29:00
2 1972-06-02 00:00:00 Temperatura 15.2 del 01-06-1972 19:00, Mayor que la Máxima 15.0 02-06-1972 00:00 15.2 -- 15.0 2013-05-08 01:29:00
2 1972-06-08 00:00:00 Temperatura 15.6 del 07-06-1972 21:00, Mayor que la Máxima 15.0 08-06-1972 00:00 15.6 -- 15.0 2013-05-08 01:29:00
2 1972-06-11 00:00:00 Temperatura 17.4 del 10-06-1972 16:00, Mayor que la Máxima 17.0 11-06-1972 00:00 17.4 -- 17.0 2013-05-08 01:29:00
2 1972-06-25 00:00:00 Temperatura 14.2 del 24-06-1972 18:00, Mayor que la Máxima 14.0 25-06-1972 00:00 14.2 -- 14.0 2013-05-08 01:29:00
2 1972-06-26 00:00:00 Temperatura 16.0 del 25-06-1972 21:00, Mayor que la Máxima 15.6 26-06-1972 00:00 16.0 -- 15.6 2013-05-08 01:29:00
2 1972-07-23 00:00:00 Temperatura 15.9 del 22-07-1972 20:00, Mayor que la Máxima 15.0 23-07-1972 00:00 15.9 -- 15.0 2013-05-08 01:29:00
2 1972-07-29 00:00:00 Temperatura 19.0 del 28-07-1972 18:00, Mayor que la Máxima 18.6 29-07-1972 00:00 19.0 -- 18.6 2013-05-08 01:29:00
2 1972-08-13 00:00:00 Temperatura 15.4 del 12-08-1972 16:00, Mayor que la Máxima 15.0 13-08-1972 00:00 15.4 -- 15.0 2013-05-08 01:29:00
2 1972-08-16 00:00:00 Temperatura 14.3 del 15-08-1972 20:00, Mayor que la Máxima 14.0 16-08-1972 00:00 14.3 -- 14.0 2013-05-08 01:29:00
2 1972-08-22 00:00:00 Temperatura 16.0 del 21-08-1972 19:00, Mayor que la Máxima 15.2 22-08-1972 00:00 16.0 -- 15.2 2013-05-08 01:29:00
2 1972-09-04 00:00:00 Temperatura 16.0 del 03-09-1972 19:00, Mayor que la Máxima 15.4 04-09-1972 00:00 16.0 -- 15.4 2013-05-08 01:29:00
2 1972-09-14 00:00:00 Temperatura 14.6 del 13-09-1972 18:00, Mayor que la Máxima 0.0 14-09-1972 00:00 14.6 -- 0.0 2013-05-08 01:29:00
2 1972-10-24 00:00:00 Temperatura 16.0 del 23-10-1972 20:00, Mayor que la Máxima 15.4 24-10-1972 00:00 16.0 -- 15.4 2013-05-08 01:29:00
2 1972-10-28 00:00:00 Temperatura 16.6 del 27-10-1972 17:00, Mayor que la Máxima 16.5 28-10-1972 00:00 16.6 -- 16.5 2013-05-08 01:29:00
2 1972-11-20 00:00:00 Temperatura 18.0 del 19-11-1972 16:00, Mayor que la Máxima 17.8 20-11-1972 00:00 18.0 -- 17.8 2013-05-08 01:29:00
2 1972-11-26 00:00:00 Temperatura 19.5 del 25-11-1972 20:00, Mayor que la Máxima 19.0 26-11-1972 00:00 19.5 -- 19.0 2013-05-08 01:29:00
2 1972-11-29 00:00:00 Temperatura 20.6 del 28-11-1972 17:00, Mayor que la Máxima 20.0 29-11-1972 00:00 20.6 -- 20.0 2013-05-08 01:29:00
2 1972-12-15 00:00:00 Temperatura 20.4 del 14-12-1972 19:00, Mayor que la Máxima 20.1 15-12-1972 00:00 20.4 -- 20.1 2013-05-08 01:29:00
2 1973-02-07 00:00:00 Temperatura 21.7 del 06-02-1973 19:00, Mayor que la Máxima 21.6 07-02-1973 00:00 21.7 -- 21.6 2013-05-08 01:29:00
2 1973-02-08 00:00:00 Temperatura 28.4 del 08-02-1973 00:00, Mayor que la Máxima 21.9 08-02-1973 00:00 28.4 -- 21.9 2013-05-08 01:29:00
2 1973-03-04 00:00:00 Temperatura 18.9 del 03-03-1973 17:00, Mayor que la Máxima 18.4 04-03-1973 00:00 18.9 -- 18.4 2013-05-08 01:29:00
2 1973-04-11 00:00:00 Temperatura 14.5 del 10-04-1973 19:00, Mayor que la Máxima 14.4 11-04-1973 00:00 14.5 -- 14.4 2013-05-08 01:29:00
2 1973-04-12 00:00:00 Temperatura 15.6 del 11-04-1973 19:00, Mayor que la Máxima 15.3 12-04-1973 00:00 15.6 -- 15.3 2013-05-08 01:29:00
2 1973-04-13 00:00:00 Temperatura 14.7 del 12-04-1973 21:00, Mayor que la Máxima 14.6 13-04-1973 00:00 14.7 -- 14.6 2013-05-08 01:29:00
2 1973-04-18 00:00:00 Temperatura 19.3 del 17-04-1973 19:00, Mayor que la Máxima 19.2 18-04-1973 00:00 19.3 -- 19.2 2013-05-08 01:29:00
2 1973-04-25 00:00:00 Temperatura 18.8 del 24-04-1973 17:00, Mayor que la Máxima 18.4 25-04-1973 00:00 18.8 -- 18.4 2013-05-08 01:29:00
2 1973-05-03 00:00:00 Temperatura 17.2 del 02-05-1973 18:00, Mayor que la Máxima 15.1 03-05-1973 00:00 17.2 -- 15.1 2013-05-08 01:29:00
2 1973-05-18 00:00:00 Temperatura 16.5 del 17-05-1973 16:00, Mayor que la Máxima 16.4 18-05-1973 00:00 16.5 -- 16.4 2013-05-08 01:29:00
2 1973-05-21 00:00:00 Temperatura 16.3 del 20-05-1973 17:00, Mayor que la Máxima 16.2 21-05-1973 00:00 16.3 -- 16.2 2013-05-08 01:29:00
2 1973-06-06 00:00:00 Temperatura 13.6 del 05-06-1973 20:00, Mayor que la Máxima 12.8 06-06-1973 00:00 13.6 -- 12.8 2013-05-08 01:29:00
2 1973-06-08 00:00:00 Temperatura 19.3 del 07-06-1973 22:00, Mayor que la Máxima 15.8 08-06-1973 00:00 19.3 -- 15.8 2013-05-08 01:29:00
2 1973-06-12 00:00:00 Temperatura 13.3 del 11-06-1973 21:00, Mayor que la Máxima 13.0 12-06-1973 00:00 13.3 -- 13.0 2013-05-08 01:29:00
2 1973-06-22 00:00:00 Temperatura 14.2 del 21-06-1973 21:00, Mayor que la Máxima 14.0 22-06-1973 00:00 14.2 -- 14.0 2013-05-08 01:29:00
2 1973-07-16 00:00:00 Temperatura 10.0 del 15-07-1973 13:00, Mayor que la Máxima 9.3 16-07-1973 00:00 10.0 -- 9.3 2013-05-08 01:30:00
2 1973-07-17 00:00:00 Temperatura 13.4 del 16-07-1973 20:00, Mayor que la Máxima 13.2 17-07-1973 00:00 13.4 -- 13.2 2013-05-08 01:30:00
2 1973-07-19 00:00:00 Temperatura 12.5 del 18-07-1973 19:00, Mayor que la Máxima 12.4 19-07-1973 00:00 12.5 -- 12.4 2013-05-08 01:30:00
2 1973-07-26 00:00:00 Temperatura 16.8 del 25-07-1973 23:00, Mayor que la Máxima 12.2 26-07-1973 00:00 16.8 -- 12.2 2013-05-08 01:30:00
2 1973-07-31 00:00:00 Temperatura 17.6 del 30-07-1973 15:00, Mayor que la Máxima 13.8 31-07-1973 00:00 17.6 -- 13.8 2013-05-08 01:30:00
2 1973-08-19 00:00:00 Temperatura 14.7 del 18-08-1973 19:00, Mayor que la Máxima 14.4 19-08-1973 00:00 14.7 -- 14.4 2013-05-08 01:30:00
2 1973-08-29 00:00:00 Temperatura 14.3 del 28-08-1973 19:00, Mayor que la Máxima 14.2 29-08-1973 00:00 14.3 -- 14.2 2013-05-08 01:30:00
2 1973-09-15 00:00:00 Temperatura 16.3 del 14-09-1973 14:00, Mayor que la Máxima 13.4 15-09-1973 00:00 16.3 -- 13.4 2013-05-08 01:30:00
2 1973-09-21 00:00:00 Temperatura 17.8 del 20-09-1973 21:00, Mayor que la Máxima 16.6 21-09-1973 00:00 17.8 -- 16.6 2013-05-08 01:30:00
2 1973-09-23 00:00:00 Temperatura 13.3 del 22-09-1973 19:00, Mayor que la Máxima 1.4 23-09-1973 00:00 13.3 -- 1.4 2013-05-08 01:30:00
2 1973-09-30 00:00:00 Temperatura 14.5 del 29-09-1973 16:00, Mayor que la Máxima 14.2 30-09-1973 00:00 14.5 -- 14.2 2013-05-08 01:30:00
2 1973-10-06 00:00:00 Temperatura 16.7 del 05-10-1973 19:00, Mayor que la Máxima 16.6 06-10-1973 00:00 16.7 -- 16.6 2013-05-08 01:30:00
2 1973-10-14 00:00:00 Temperatura 15.5 del 13-10-1973 19:00, Mayor que la Máxima 15.4 14-10-1973 00:00 15.5 -- 15.4 2013-05-08 01:30:00
2 1973-10-21 00:00:00 Temperatura 14.6 del 21-10-1973 00:00, Mayor que la Máxima 14.4 21-10-1973 00:00 14.6 -- 14.4 2013-05-08 01:30:00
2 1973-10-30 00:00:00 Temperatura 15.9 del 29-10-1973 20:00, Mayor que la Máxima 15.8 30-10-1973 00:00 15.9 -- 15.8 2013-05-08 01:30:00
2 1973-11-06 00:00:00 Temperatura 16.5 del 05-11-1973 22:00, Mayor que la Máxima 16.0 06-11-1973 00:00 16.5 -- 16.0 2013-05-08 01:30:00
2 1973-11-14 00:00:00 Temperatura 18.7 del 13-11-1973 19:00, Mayor que la Máxima 18.4 14-11-1973 00:00 18.7 -- 18.4 2013-05-08 01:30:00
2 1973-12-18 00:00:00 Temperatura 16.2 del 17-12-1973 19:00, Mayor que la Máxima 16.0 18-12-1973 00:00 16.2 -- 16.0 2013-05-08 01:30:00
2 1974-01-14 00:00:00 Temperatura 20.6 del 13-01-1974 19:00, Mayor que la Máxima 20.4 14-01-1974 00:00 20.6 -- 20.4 2013-05-08 01:30:00
2 1974-01-22 00:00:00 Temperatura 18.2 del 21-01-1974 19:00, Mayor que la Máxima 17.7 22-01-1974 00:00 18.2 -- 17.7 2013-05-08 01:30:00
2 1974-02-03 00:00:00 Temperatura 18.4 del 02-02-1974 20:00, Mayor que la Máxima 18.0 03-02-1974 00:00 18.4 -- 18.0 2013-05-08 01:30:00
2 1974-03-03 00:00:00 Temperatura 17.9 del 02-03-1974 17:00, Mayor que la Máxima 17.8 03-03-1974 00:00 17.9 -- 17.8 2013-05-08 01:30:00
2 1974-03-26 00:00:00 Temperatura 17.8 del 25-03-1974 19:00, Mayor que la Máxima 17.4 26-03-1974 00:00 17.8 -- 17.4 2013-05-08 01:30:00
2 1974-03-31 00:00:00 Temperatura 16.4 del 30-03-1974 19:00, Mayor que la Máxima 16.3 31-03-1974 00:00 16.4 -- 16.3 2013-05-08 01:30:00
2 1974-04-04 00:00:00 Temperatura 16.3 del 03-04-1974 21:00, Mayor que la Máxima 16.0 04-04-1974 00:00 16.3 -- 16.0 2013-05-08 01:30:00
2 1974-04-07 00:00:00 Temperatura 18.0 del 06-04-1974 22:00, Mayor que la Máxima 17.8 07-04-1974 00:00 18.0 -- 17.8 2013-05-08 01:30:00
2 1974-04-19 00:00:00 Temperatura 15.8 del 18-04-1974 17:00, Mayor que la Máxima 13.9 19-04-1974 00:00 15.8 -- 13.9 2013-05-08 01:30:00
2 1974-05-11 00:00:00 Temperatura 15.9 del 10-05-1974 20:00, Mayor que la Máxima 15.6 11-05-1974 00:00 15.9 -- 15.6 2013-05-08 01:30:00
2 1974-05-27 00:00:00 Temperatura 17.4 del 26-05-1974 19:00, Mayor que la Máxima 17.2 27-05-1974 00:00 17.4 -- 17.2 2013-05-08 01:30:00
2 1974-05-29 00:00:00 Temperatura 14.3 del 28-05-1974 20:00, Mayor que la Máxima 14.2 29-05-1974 00:00 14.3 -- 14.2 2013-05-08 01:30:00
2 1974-05-31 00:00:00 Temperatura 16.3 del 30-05-1974 19:00, Mayor que la Máxima 16.0 31-05-1974 00:00 16.3 -- 16.0 2013-05-08 01:30:00
2 1974-06-16 00:00:00 Temperatura 13.7 del 15-06-1974 17:00, Mayor que la Máxima 12.4 16-06-1974 00:00 13.7 -- 12.4 2013-05-08 01:30:00
2 1974-06-25 00:00:00 Temperatura 13.0 del 24-06-1974 17:00, Mayor que la Máxima 12.9 25-06-1974 00:00 13.0 -- 12.9 2013-05-08 01:30:00
2 1974-06-27 00:00:00 Temperatura 14.5 del 26-06-1974 14:00, Mayor que la Máxima 14.2 27-06-1974 00:00 14.5 -- 14.2 2013-05-08 01:30:00
2 1974-07-06 00:00:00 Temperatura 15.0 del 05-07-1974 18:00, Mayor que la Máxima 14.8 06-07-1974 00:00 15.0 -- 14.8 2013-05-08 01:30:00
2 1974-07-12 00:00:00 Temperatura 12.5 del 11-07-1974 18:00, Mayor que la Máxima 11.8 12-07-1974 00:00 12.5 -- 11.8 2013-05-08 01:30:00
2 1974-07-13 00:00:00 Temperatura 12.8 del 12-07-1974 21:00, Mayor que la Máxima 12.7 13-07-1974 00:00 12.8 -- 12.7 2013-05-08 01:30:00
2 1974-07-22 00:00:00 Temperatura 11.3 del 21-07-1974 19:00, Mayor que la Máxima 11.2 22-07-1974 00:00 11.3 -- 11.2 2013-05-08 01:30:00
2 1974-07-25 00:00:00 Temperatura 15.0 del 24-07-1974 20:00, Mayor que la Máxima 14.1 25-07-1974 00:00 15.0 -- 14.1 2013-05-08 01:30:00
2 1974-07-30 00:00:00 Temperatura 15.5 del 29-07-1974 18:00, Mayor que la Máxima 15.4 30-07-1974 00:00 15.5 -- 15.4 2013-05-08 01:30:00
2 1974-07-31 00:00:00 Temperatura 12.7 del 30-07-1974 19:00, Mayor que la Máxima 12.0 31-07-1974 00:00 12.7 -- 12.0 2013-05-08 01:30:00
2 1974-08-06 00:00:00 Temperatura 14.0 del 05-08-1974 19:00, Mayor que la Máxima 13.4 06-08-1974 00:00 14.0 -- 13.4 2013-05-08 01:30:00
2 1974-08-08 00:00:00 Temperatura 14.5 del 07-08-1974 18:00, Mayor que la Máxima 14.4 08-08-1974 00:00 14.5 -- 14.4 2013-05-08 01:30:00
2 1974-08-27 00:00:00 Temperatura 12.6 del 26-08-1974 17:00, Mayor que la Máxima 12.4 27-08-1974 00:00 12.6 -- 12.4 2013-05-08 01:30:00
2 1974-09-02 00:00:00 Temperatura 19.0 del 01-09-1974 18:00, Mayor que la Máxima 13.2 02-09-1974 00:00 19.0 -- 13.2 2013-05-08 01:30:00
2 1974-10-07 00:00:00 Temperatura 15.0 del 06-10-1974 17:00, Mayor que la Máxima 14.8 07-10-1974 00:00 15.0 -- 14.8 2013-05-08 01:30:00
2 1974-10-12 00:00:00 Temperatura 14.5 del 11-10-1974 18:00, Mayor que la Máxima 14.3 12-10-1974 00:00 14.5 -- 14.3 2013-05-08 01:30:00
2 1974-10-21 00:00:00 Temperatura 16.8 del 20-10-1974 18:00, Mayor que la Máxima 16.4 21-10-1974 00:00 16.8 -- 16.4 2013-05-08 01:30:00
2 1974-10-29 00:00:00 Temperatura 17.2 del 28-10-1974 20:00, Mayor que la Máxima 17.1 29-10-1974 00:00 17.2 -- 17.1 2013-05-08 01:30:00
2 1974-11-11 00:00:00 Temperatura 15.1 del 10-11-1974 20:00, Mayor que la Máxima 14.9 11-11-1974 00:00 15.1 -- 14.9 2013-05-08 01:30:00
2 1974-11-26 00:00:00 Temperatura 16.9 del 25-11-1974 16:00, Mayor que la Máxima 16.8 26-11-1974 00:00 16.9 -- 16.8 2013-05-08 01:30:00
2 1974-11-29 00:00:00 Temperatura 16.2 del 28-11-1974 20:00, Mayor que la Máxima 15.6 29-11-1974 00:00 16.2 -- 15.6 2013-05-08 01:30:00
2 1974-12-09 00:00:00 Temperatura 19.0 del 08-12-1974 15:00, Mayor que la Máxima 18.6 09-12-1974 00:00 19.0 -- 18.6 2013-05-08 01:30:00
2 1974-12-16 00:00:00 Temperatura 17.8 del 15-12-1974 20:00, Mayor que la Máxima 17.0 16-12-1974 00:00 17.8 -- 17.0 2013-05-08 01:30:00
2 1975-01-08 00:00:00 Temperatura 18.0 del 07-01-1975 18:00, Mayor que la Máxima 17.8 08-01-1975 00:00 18.0 -- 17.8 2013-05-08 01:30:00
2 1975-01-12 00:00:00 Temperatura 18.5 del 11-01-1975 19:00, Mayor que la Máxima 18.4 12-01-1975 00:00 18.5 -- 18.4 2013-05-08 01:30:00
2 1975-02-06 00:00:00 Temperatura 20.9 del 05-02-1975 20:00, Mayor que la Máxima 20.3 06-02-1975 00:00 20.9 -- 20.3 2013-05-08 01:30:00
2 1975-02-10 00:00:00 Temperatura 22.4 del 09-02-1975 17:00, Mayor que la Máxima 22.3 10-02-1975 00:00 22.4 -- 22.3 2013-05-08 01:30:00
2 1975-02-11 00:00:00 Temperatura 23.7 del 10-02-1975 19:00, Mayor que la Máxima 23.6 11-02-1975 00:00 23.7 -- 23.6 2013-05-08 01:30:00
2 1975-02-19 00:00:00 Temperatura 19.2 del 18-02-1975 19:00, Mayor que la Máxima 18.8 19-02-1975 00:00 19.2 -- 18.8 2013-05-08 01:30:00
2 1975-03-30 00:00:00 Temperatura 19.4 del 29-03-1975 16:00, Mayor que la Máxima 17.2 30-03-1975 00:00 19.4 -- 17.2 2013-05-08 01:30:00
2 1975-04-01 00:00:00 Temperatura 17.7 del 31-03-1975 18:00, Mayor que la Máxima 17.4 01-04-1975 00:00 17.7 -- 17.4 2013-05-08 01:30:00
2 1975-04-17 00:00:00 Temperatura 18.6 del 16-04-1975 13:00, Mayor que la Máxima 17.5 17-04-1975 00:00 18.6 -- 17.5 2013-05-08 01:30:00
2 1975-04-27 00:00:00 Temperatura 15.3 del 26-04-1975 18:00, Mayor que la Máxima 15.0 27-04-1975 00:00 15.3 -- 15.0 2013-05-08 01:30:00
2 1975-05-05 00:00:00 Temperatura 20.8 del 04-05-1975 13:00, Mayor que la Máxima 14.2 05-05-1975 00:00 20.8 -- 14.2 2013-05-08 01:30:00
2 1975-05-26 00:00:00 Temperatura 14.3 del 25-05-1975 17:00, Mayor que la Máxima 14.2 26-05-1975 00:00 14.3 -- 14.2 2013-05-08 01:30:00
2 1975-05-29 00:00:00 Temperatura 15.4 del 28-05-1975 18:00, Mayor que la Máxima 5.4 29-05-1975 00:00 15.4 -- 5.4 2013-05-08 01:30:00
2 1975-06-20 00:00:00 Temperatura 16.1 del 19-06-1975 16:00, Mayor que la Máxima 15.4 20-06-1975 00:00 16.1 -- 15.4 2013-05-08 01:30:00
2 1975-06-24 00:00:00 Temperatura 15.5 del 23-06-1975 21:00, Mayor que la Máxima 15.0 24-06-1975 00:00 15.5 -- 15.0 2013-05-08 01:30:00
2 1975-06-27 00:00:00 Temperatura 14.0 del 26-06-1975 15:00, Mayor que la Máxima 4.4 27-06-1975 00:00 14.0 -- 4.4 2013-05-08 01:30:00
2 1975-06-29 00:00:00 Temperatura 18.0 del 29-06-1975 00:00, Mayor que la Máxima 14.5 29-06-1975 00:00 18.0 -- 14.5 2013-05-08 01:30:00
2 1975-07-05 00:00:00 Temperatura 14.3 del 04-07-1975 21:00, Mayor que la Máxima 14.2 05-07-1975 00:00 14.3 -- 14.2 2013-05-08 01:30:00
2 1975-07-06 00:00:00 Temperatura 19.8 del 05-07-1975 18:00, Mayor que la Máxima 15.6 06-07-1975 00:00 19.8 -- 15.6 2013-05-08 01:30:00
2 1975-07-11 00:00:00 Temperatura 19.4 del 10-07-1975 16:00, Mayor que la Máxima 13.4 11-07-1975 00:00 19.4 -- 13.4 2013-05-08 01:30:00
2 1975-07-19 00:00:00 Temperatura 15.0 del 18-07-1975 17:00, Mayor que la Máxima 14.7 19-07-1975 00:00 15.0 -- 14.7 2013-05-08 01:30:00
2 1975-08-04 00:00:00 Temperatura 18.0 del 03-08-1975 21:00, Mayor que la Máxima 14.4 04-08-1975 00:00 18.0 -- 14.4 2013-05-08 01:30:00
2 1975-08-07 00:00:00 Temperatura 12.3 del 06-08-1975 15:00, Mayor que la Máxima 11.8 07-08-1975 00:00 12.3 -- 11.8 2013-05-08 01:30:00
2 1975-08-11 00:00:00 Temperatura 16.7 del 10-08-1975 15:00, Mayor que la Máxima 14.4 11-08-1975 00:00 16.7 -- 14.4 2013-05-08 01:30:00
2 1975-09-02 00:00:00 Temperatura 17.0 del 01-09-1975 17:00, Mayor que la Máxima 16.6 02-09-1975 00:00 17.0 -- 16.6 2013-05-08 01:30:00
2 1975-09-10 00:00:00 Temperatura 22.0 del 09-09-1975 15:00, Mayor que la Máxima 12.8 10-09-1975 00:00 22.0 -- 12.8 2013-05-08 01:30:00
2 1975-09-13 00:00:00 Temperatura 13.5 del 12-09-1975 19:00, Mayor que la Máxima 13.4 13-09-1975 00:00 13.5 -- 13.4 2013-05-08 01:30:00
2 1975-09-16 00:00:00 Temperatura 14.0 del 15-09-1975 18:00, Mayor que la Máxima 13.6 16-09-1975 00:00 14.0 -- 13.6 2013-05-08 01:30:00
2 1975-09-29 00:00:00 Temperatura 15.3 del 28-09-1975 20:00, Mayor que la Máxima 13.4 29-09-1975 00:00 15.3 -- 13.4 2013-05-08 01:30:00
2 1975-10-06 00:00:00 Temperatura 14.8 del 05-10-1975 16:00, Mayor que la Máxima 14.6 06-10-1975 00:00 14.8 -- 14.6 2013-05-08 01:30:00
2 1975-10-15 00:00:00 Temperatura 22.5 del 14-10-1975 17:00, Mayor que la Máxima 15.2 15-10-1975 00:00 22.5 -- 15.2 2013-05-08 01:30:00
2 1975-10-21 00:00:00 Temperatura 18.4 del 20-10-1975 21:00, Mayor que la Máxima 16.5 21-10-1975 00:00 18.4 -- 16.5 2013-05-08 01:30:00
2 1975-11-12 00:00:00 Temperatura 16.5 del 11-11-1975 19:00, Mayor que la Máxima 16.4 12-11-1975 00:00 16.5 -- 16.4 2013-05-08 01:30:00
2 1975-11-13 00:00:00 Temperatura 18.9 del 12-11-1975 20:00, Mayor que la Máxima 16.2 13-11-1975 00:00 18.9 -- 16.2 2013-05-08 01:30:00
2 1975-11-26 00:00:00 Temperatura 24.8 del 25-11-1975 14:00, Mayor que la Máxima 17.4 26-11-1975 00:00 24.8 -- 17.4 2013-05-08 01:30:00
2 1976-03-12 00:00:00 Temperatura 17.4 del 11-03-1976 16:00, Mayor que la Máxima 17.3 12-03-1976 00:00 17.4 -- 17.3 2013-05-08 01:30:00
2 1976-04-10 00:00:00 Temperatura 16.6 del 09-04-1976 19:00, Mayor que la Máxima 16.4 10-04-1976 00:00 16.6 -- 16.4 2013-05-08 01:30:00
2 1976-04-16 00:00:00 Temperatura 16.1 del 15-04-1976 16:00, Mayor que la Máxima 15.8 16-04-1976 00:00 16.1 -- 15.8 2013-05-08 01:30:00
2 1976-04-21 00:00:00 Temperatura 19.6 del 20-04-1976 23:00, Mayor que la Máxima 17.0 21-04-1976 00:00 19.6 -- 17.0 2013-05-08 01:30:00
2 1976-05-04 00:00:00 Temperatura 16.2 del 03-05-1976 19:00, Mayor que la Máxima 16.0 04-05-1976 00:00 16.2 -- 16.0 2013-05-08 01:30:00
2 1976-05-12 00:00:00 Temperatura 14.9 del 11-05-1976 16:00, Mayor que la Máxima 14.8 12-05-1976 00:00 14.9 -- 14.8 2013-05-08 01:30:00
2 1976-05-21 00:00:00 Temperatura 16.4 del 20-05-1976 18:00, Mayor que la Máxima 16.3 21-05-1976 00:00 16.4 -- 16.3 2013-05-08 01:30:00
2 1976-06-01 00:00:00 Temperatura 17.3 del 31-05-1976 19:00, Mayor que la Máxima 17.2 01-06-1976 00:00 17.3 -- 17.2 2013-05-08 01:30:00
2 1976-06-05 00:00:00 Temperatura 13.2 del 04-06-1976 17:00, Mayor que la Máxima 13.0 05-06-1976 00:00 13.2 -- 13.0 2013-05-08 01:30:00
2 1976-06-30 00:00:00 Temperatura 12.6 del 29-06-1976 20:00, Mayor que la Máxima 12.4 30-06-1976 00:00 12.6 -- 12.4 2013-05-08 01:30:00
2 1976-07-20 00:00:00 Temperatura 12.6 del 19-07-1976 18:00, Mayor que la Máxima 12.5 20-07-1976 00:00 12.6 -- 12.5 2013-05-08 01:30:00
2 1976-08-15 00:00:00 Temperatura 14.7 del 14-08-1976 20:00, Mayor que la Máxima 14.4 15-08-1976 00:00 14.7 -- 14.4 2013-05-08 01:31:00
2 1976-08-26 00:00:00 Temperatura 16.7 del 25-08-1976 20:00, Mayor que la Máxima 16.6 26-08-1976 00:00 16.7 -- 16.6 2013-05-08 01:31:00
2 1976-08-28 00:00:00 Temperatura 15.8 del 27-08-1976 18:00, Mayor que la Máxima 15.6 28-08-1976 00:00 15.8 -- 15.6 2013-05-08 01:31:00
2 1976-09-07 00:00:00 Temperatura 16.2 del 06-09-1976 17:00, Mayor que la Máxima 14.4 07-09-1976 00:00 16.2 -- 14.4 2013-05-08 01:31:00
2 1976-09-26 00:00:00 Temperatura 15.7 del 25-09-1976 20:00, Mayor que la Máxima 15.6 26-09-1976 00:00 15.7 -- 15.6 2013-05-08 01:31:00
2 1976-10-21 00:00:00 Temperatura 15.5 del 20-10-1976 17:00, Mayor que la Máxima 15.4 21-10-1976 00:00 15.5 -- 15.4 2013-05-08 01:31:00
2 1976-11-06 00:00:00 Temperatura 18.5 del 05-11-1976 19:00, Mayor que la Máxima 18.4 06-11-1976 00:00 18.5 -- 18.4 2013-05-08 01:31:00
2 1976-11-16 00:00:00 Temperatura 18.2 del 15-11-1976 16:00, Mayor que la Máxima 17.6 16-11-1976 00:00 18.2 -- 17.6 2013-05-08 01:31:00
2 1976-11-19 00:00:00 Temperatura 20.2 del 18-11-1976 17:00, Mayor que la Máxima 19.9 19-11-1976 00:00 20.2 -- 19.9 2013-05-08 01:31:00
2 1976-12-31 00:00:00 Temperatura 22.4 del 30-12-1976 20:00, Mayor que la Máxima 22.0 31-12-1976 00:00 22.4 -- 22.0 2013-05-08 01:31:00
2 1977-01-05 00:00:00 Temperatura 19.4 del 04-01-1977 20:00, Mayor que la Máxima 19.0 05-01-1977 00:00 19.4 -- 19.0 2013-05-08 01:31:00
2 1977-01-10 00:00:00 Temperatura 20.2 del 09-01-1977 19:00, Mayor que la Máxima 20.0 10-01-1977 00:00 20.2 -- 20.0 2013-05-08 01:31:00
2 1977-02-09 00:00:00 Temperatura 20.6 del 08-02-1977 20:00, Mayor que la Máxima 2.1 09-02-1977 00:00 20.6 -- 2.1 2013-05-08 01:31:00
2 1977-02-13 00:00:00 Temperatura 21.2 del 12-02-1977 20:00, Mayor que la Máxima 21.0 13-02-1977 00:00 21.2 -- 21.0 2013-05-08 01:31:00
2 1977-03-09 00:00:00 Temperatura 19.2 del 08-03-1977 17:00, Mayor que la Máxima 19.0 09-03-1977 00:00 19.2 -- 19.0 2013-05-08 01:31:00
2 1977-03-29 00:00:00 Temperatura 19.0 del 28-03-1977 18:00, Mayor que la Máxima 9.8 29-03-1977 00:00 19.0 -- 9.8 2013-05-08 01:31:00
2 1977-05-18 00:00:00 Temperatura 17.8 del 17-05-1977 21:00, Mayor que la Máxima 15.4 18-05-1977 00:00 17.8 -- 15.4 2013-05-08 01:31:00
2 1977-07-18 00:00:00 Temperatura 16.4 del 17-07-1977 19:00, Mayor que la Máxima 16.2 18-07-1977 00:00 16.4 -- 16.2 2013-05-08 01:31:00
2 1977-08-06 00:00:00 Temperatura 16.2 del 06-08-1977 00:00, Mayor que la Máxima 12.4 06-08-1977 00:00 16.2 -- 12.4 2013-05-08 01:31:00
2 1977-08-11 00:00:00 Temperatura 14.8 del 10-08-1977 17:00, Mayor que la Máxima 14.3 11-08-1977 00:00 14.8 -- 14.3 2013-05-08 01:31:00
2 1977-08-25 00:00:00 Temperatura 14.6 del 24-08-1977 20:00, Mayor que la Máxima 14.4 25-08-1977 00:00 14.6 -- 14.4 2013-05-08 01:31:00
2 1977-09-05 00:00:00 Temperatura 18.2 del 04-09-1977 15:00, Mayor que la Máxima 13.8 05-09-1977 00:00 18.2 -- 13.8 2013-05-08 01:31:00
2 1977-09-28 00:00:00 Temperatura 17.0 del 27-09-1977 17:00, Mayor que la Máxima 16.8 28-09-1977 00:00 17.0 -- 16.8 2013-05-08 01:31:00
2 1977-11-10 00:00:00 Temperatura 16.4 del 09-11-1977 20:00, Mayor que la Máxima 16.2 10-11-1977 00:00 16.4 -- 16.2 2013-05-08 01:31:00
2 1977-11-22 00:00:00 Temperatura 18.7 del 21-11-1977 20:00, Mayor que la Máxima 18.6 22-11-1977 00:00 18.7 -- 18.6 2013-05-08 01:31:00
2 1977-12-20 00:00:00 Temperatura 19.6 del 19-12-1977 19:00, Mayor que la Máxima 19.4 20-12-1977 00:00 19.6 -- 19.4 2013-05-08 01:31:00
2 1978-01-03 00:00:00 Temperatura 19.6 del 02-01-1978 20:00, Mayor que la Máxima 17.4 03-01-1978 00:00 19.6 -- 17.4 2013-05-08 01:31:00
2 1978-01-19 00:00:00 Temperatura 19.8 del 18-01-1978 21:00, Mayor que la Máxima 19.6 19-01-1978 00:00 19.8 -- 19.6 2013-05-08 01:31:00
2 1978-01-27 00:00:00 Temperatura 21.4 del 26-01-1978 20:00, Mayor que la Máxima 21.0 27-01-1978 00:00 21.4 -- 21.0 2013-05-08 01:31:00
2 1978-02-20 00:00:00 Temperatura 18.0 del 19-02-1978 17:00, Mayor que la Máxima 8.2 20-02-1978 00:00 18.0 -- 8.2 2013-05-08 01:31:00
2 1978-04-01 00:00:00 Temperatura 19.2 del 31-03-1978 14:00, Mayor que la Máxima 18.4 01-04-1978 00:00 19.2 -- 18.4 2013-05-08 01:31:00
2 1978-04-19 00:00:00 Temperatura 17.8 del 18-04-1978 17:00, Mayor que la Máxima 17.7 19-04-1978 00:00 17.8 -- 17.7 2013-05-08 01:31:00
2 1978-06-05 00:00:00 Temperatura 11.4 del 04-06-1978 17:00, Mayor que la Máxima 10.6 05-06-1978 00:00 11.4 -- 10.6 2013-05-08 01:31:00
2 1978-06-07 00:00:00 Temperatura 17.4 del 06-06-1978 16:00, Mayor que la Máxima 17.2 07-06-1978 00:00 17.4 -- 17.2 2013-05-08 01:31:00
2 1978-08-22 00:00:00 Temperatura 18.4 del 21-08-1978 22:00, Mayor que la Máxima 11.4 22-08-1978 00:00 18.4 -- 11.4 2013-05-08 01:31:00
2 1979-03-13 00:00:00 Temperatura 19.9 del 12-03-1979 21:00, Mayor que la Máxima 19.4 13-03-1979 00:00 19.9 -- 19.4 2013-05-08 01:31:00
2 1979-03-27 00:00:00 Temperatura 19.4 del 26-03-1979 17:00, Mayor que la Máxima 19.3 27-03-1979 00:00 19.4 -- 19.3 2013-05-08 01:31:00
2 1979-04-17 00:00:00 Temperatura 19.4 del 16-04-1979 20:00, Mayor que la Máxima 19.0 17-04-1979 00:00 19.4 -- 19.0 2013-05-08 01:31:00
2 1979-05-27 00:00:00 Temperatura 17.4 del 26-05-1979 16:00, Mayor que la Máxima 17.2 27-05-1979 00:00 17.4 -- 17.2 2013-05-08 01:31:00
2 1979-08-10 00:00:00 Temperatura 17.8 del 09-08-1979 17:00, Mayor que la Máxima 17.6 10-08-1979 00:00 17.8 -- 17.6 2013-05-08 01:31:00
2 1979-09-21 00:00:00 Temperatura 15.0 del 20-09-1979 15:00, Mayor que la Máxima 14.6 21-09-1979 00:00 15.0 -- 14.6 2013-05-08 01:31:00
2 1979-12-13 00:00:00 Temperatura 21.4 del 12-12-1979 15:00, Mayor que la Máxima 21.0 13-12-1979 00:00 21.4 -- 21.0 2013-05-08 01:32:00
2 1980-01-29 00:00:00 Temperatura 20.9 del 28-01-1980 22:00, Mayor que la Máxima 20.8 29-01-1980 00:00 20.9 -- 20.8 2013-05-08 01:32:00
2 1980-02-10 00:00:00 Temperatura 19.2 del 09-02-1980 22:00, Mayor que la Máxima 19.0 10-02-1980 00:00 19.2 -- 19.0 2013-05-08 01:32:00
2 1980-03-22 00:00:00 Temperatura 21.4 del 21-03-1980 17:00, Mayor que la Máxima 20.4 22-03-1980 00:00 21.4 -- 20.4 2013-05-08 01:32:00
2 1980-04-17 00:00:00 Temperatura 19.6 del 16-04-1980 22:00, Mayor que la Máxima 18.1 17-04-1980 00:00 19.6 -- 18.1 2013-05-08 01:32:00
2 1980-05-09 00:00:00 Temperatura 19.4 del 08-05-1980 16:00, Mayor que la Máxima 15.4 09-05-1980 00:00 19.4 -- 15.4 2013-05-08 01:32:00
2 1980-05-13 00:00:00 Temperatura 17.4 del 12-05-1980 20:00, Mayor que la Máxima 17.0 13-05-1980 00:00 17.4 -- 17.0 2013-05-08 01:32:00
2 1980-05-15 00:00:00 Temperatura 16.4 del 14-05-1980 19:00, Mayor que la Máxima 16.2 15-05-1980 00:00 16.4 -- 16.2 2013-05-08 01:32:00
2 1980-05-18 00:00:00 Temperatura 14.3 del 17-05-1980 16:00, Mayor que la Máxima 14.2 18-05-1980 00:00 14.3 -- 14.2 2013-05-08 01:32:00
2 1980-09-15 00:00:00 Temperatura 23.4 del 14-09-1980 16:00, Mayor que la Máxima 14.4 15-09-1980 00:00 23.4 -- 14.4 2013-05-08 01:32:00
2 1980-10-05 00:00:00 Temperatura 15.4 del 04-10-1980 19:00, Mayor que la Máxima 15.2 05-10-1980 00:00 15.4 -- 15.2 2013-05-08 01:32:00
2 1981-01-15 00:00:00 Temperatura 19.2 del 14-01-1981 20:00, Mayor que la Máxima 19.0 15-01-1981 00:00 19.2 -- 19.0 2013-05-08 01:32:00
2 1981-01-16 00:00:00 Temperatura 19.6 del 15-01-1981 16:00, Mayor que la Máxima 19.0 16-01-1981 00:00 19.6 -- 19.0 2013-05-08 01:32:00
2 1981-01-25 00:00:00 Temperatura 22.1 del 24-01-1981 19:00, Mayor que la Máxima 22.0 25-01-1981 00:00 22.1 -- 22.0 2013-05-08 01:32:00
2 1981-02-21 00:00:00 Temperatura 18.0 del 20-02-1981 20:00, Mayor que la Máxima 17.4 21-02-1981 00:00 18.0 -- 17.4 2013-05-08 01:32:00
2 1981-04-03 00:00:00 Temperatura 19.4 del 02-04-1981 17:00, Mayor que la Máxima 19.0 03-04-1981 00:00 19.4 -- 19.0 2013-05-08 01:32:00
2 1981-04-08 00:00:00 Temperatura 18.7 del 07-04-1981 19:00, Mayor que la Máxima 18.4 08-04-1981 00:00 18.7 -- 18.4 2013-05-08 01:32:00
2 1981-05-16 00:00:00 Temperatura 17.2 del 15-05-1981 17:00, Mayor que la Máxima 16.9 16-05-1981 00:00 17.2 -- 16.9 2013-05-08 01:32:00
2 1981-05-28 00:00:00 Temperatura 16.1 del 27-05-1981 17:00, Mayor que la Máxima 16.0 28-05-1981 00:00 16.1 -- 16.0 2013-05-08 01:32:00
2 1981-08-28 00:00:00 Temperatura 17.2 del 27-08-1981 19:00, Mayor que la Máxima 13.4 28-08-1981 00:00 17.2 -- 13.4 2013-05-08 01:32:00
2 1981-09-08 00:00:00 Temperatura 19.0 del 07-09-1981 13:00, Mayor que la Máxima 14.6 08-09-1981 00:00 19.0 -- 14.6 2013-05-08 01:32:00
2 1981-09-13 00:00:00 Temperatura 14.0 del 12-09-1981 18:00, Mayor que la Máxima 13.6 13-09-1981 00:00 14.0 -- 13.6 2013-05-08 01:32:00
2 1981-09-30 00:00:00 Temperatura 14.8 del 29-09-1981 19:00, Mayor que la Máxima 14.3 30-09-1981 00:00 14.8 -- 14.3 2013-05-08 01:32:00
2 1981-11-01 00:00:00 Temperatura 16.6 del 31-10-1981 16:00, Mayor que la Máxima 16.4 01-11-1981 00:00 16.6 -- 16.4 2013-05-08 01:32:00
2 1981-11-17 00:00:00 Temperatura 16.2 del 16-11-1981 19:00, Mayor que la Máxima 15.8 17-11-1981 00:00 16.2 -- 15.8 2013-05-08 01:32:00
2 1981-12-04 00:00:00 Temperatura 16.8 del 03-12-1981 21:00, Mayor que la Máxima 16.6 04-12-1981 00:00 16.8 -- 16.6 2013-05-08 01:32:00
2 1981-12-05 00:00:00 Temperatura 20.1 del 04-12-1981 23:00, Mayor que la Máxima 18.0 05-12-1981 00:00 20.1 -- 18.0 2013-05-08 01:32:00
2 1982-01-08 00:00:00 Temperatura 19.8 del 07-01-1982 22:00, Mayor que la Máxima 19.2 08-01-1982 00:00 19.8 -- 19.2 2013-05-08 01:32:00
2 1982-01-17 00:00:00 Temperatura 21.2 del 16-01-1982 14:00, Mayor que la Máxima 21.1 17-01-1982 00:00 21.2 -- 21.1 2013-05-08 01:32:00
2 1982-02-26 00:00:00 Temperatura 20.0 del 25-02-1982 20:00, Mayor que la Máxima 19.6 26-02-1982 00:00 20.0 -- 19.6 2013-05-08 01:32:00
2 1982-04-16 00:00:00 Temperatura 17.7 del 15-04-1982 17:00, Mayor que la Máxima 17.6 16-04-1982 00:00 17.7 -- 17.6 2013-05-08 01:32:00
2 1982-04-29 00:00:00 Temperatura 13.6 del 28-04-1982 17:00, Mayor que la Máxima 13.4 29-04-1982 00:00 13.6 -- 13.4 2013-05-08 01:32:00
2 1982-09-11 00:00:00 Temperatura 16.8 del 10-09-1982 19:00, Mayor que la Máxima 16.6 11-09-1982 00:00 16.8 -- 16.6 2013-05-08 01:32:00
2 1982-12-21 00:00:00 Temperatura 19.8 del 20-12-1982 19:00, Mayor que la Máxima 19.6 21-12-1982 00:00 19.8 -- 19.6 2013-05-08 01:33:00
2 1952-01-05 12:00:00 Temperatura 12.5 del 05-01-1952 09:00, Menor que la Mínima 14.3 05-01-1952 12:00 12.5 -- 14.3 2014-09-15 14:16:00
2 1952-01-09 12:00:00 Temperatura 17.0 del 09-01-1952 06:00, Menor que la Mínima 26.4 09-01-1952 12:00 17.0 -- 26.4 2014-09-15 15:51:00
2 1952-02-13 12:00:00 Temperatura 13.2 del 13-02-1952 10:00, Menor que la Mínima 14.8 13-02-1952 12:00 13.2 -- 14.8 2014-09-22 19:59:00
2 1952-03-28 12:00:00 Temperatura 9.0 del 28-03-1952 07:00, Menor que la Mínima 9.8 28-03-1952 12:00 9.0 -- 9.8 2014-09-24 15:29:00
2 1952-07-17 12:00:00 Temperatura 4.5 del 17-07-1952 07:00, Menor que la Mínima 4.7 17-07-1952 12:00 4.5 -- 4.7 2014-10-01 19:11:00
2 1952-08-15 12:00:00 Temperatura 10.5 del 15-08-1952 12:00, Menor que la Mínima 11.2 15-08-1952 12:00 10.5 -- 11.2 2014-10-02 20:26:00
2 1952-11-24 12:00:00 Temperatura 13.3 del 24-11-1952 10:00, Menor que la Mínima 15.5 24-11-1952 12:00 13.3 -- 15.5 2014-10-09 12:29:00
2 1953-09-07 12:00:00 Temperatura 11.0 del 07-09-1953 12:00, Menor que la Mínima 11.3 07-09-1953 12:00 11.0 -- 11.3 2013-10-21 12:43:00
2 1955-05-23 12:00:00 Temperatura 8.5 del 23-05-1955 12:00, Menor que la Mínima 8.8 23-05-1955 12:00 8.5 -- 8.8 2013-05-08 01:33:00
2 1955-07-11 12:00:00 Temperatura 0.0 del 11-07-1955 12:00, Menor que la Mínima 1.3 11-07-1955 12:00 0.0 -- 1.3 2013-05-08 01:33:00
2 1955-07-16 12:00:00 Temperatura 5.2 del 16-07-1955 09:00, Menor que la Mínima 6.3 16-07-1955 12:00 5.2 -- 6.3 2013-05-08 01:33:00
2 1955-07-28 12:00:00 Temperatura -2.4 del 28-07-1955 09:00, Menor que la Mínima 3.6 28-07-1955 12:00 -2.4 -- 3.6 2013-05-08 01:33:00
2 1956-10-04 12:00:00 Temperatura 7.3 del 04-10-1956 12:00, Menor que la Mínima 9.3 04-10-1956 12:00 7.3 -- 9.3 2013-05-08 01:33:00
2 1957-04-24 12:00:00 Temperatura 8.0 del 24-04-1957 12:00, Menor que la Mínima 8.5 24-04-1957 12:00 8.0 -- 8.5 2013-05-08 01:33:00
2 1957-05-11 12:00:00 Temperatura 12.6 del 11-05-1957 12:00, Menor que la Mínima 13.2 11-05-1957 12:00 12.6 -- 13.2 2013-05-08 01:33:00
2 1957-06-20 12:00:00 Temperatura 0.6 del 20-06-1957 12:00, Menor que la Mínima 4.2 20-06-1957 12:00 0.6 -- 4.2 2013-05-08 01:33:00
2 1957-09-19 12:00:00 Temperatura 5.6 del 19-09-1957 12:00, Menor que la Mínima 8.6 19-09-1957 12:00 5.6 -- 8.6 2013-05-08 01:33:00
2 1957-09-25 12:00:00 Temperatura 4.0 del 25-09-1957 12:00, Menor que la Mínima 5.0 25-09-1957 12:00 4.0 -- 5.0 2013-05-08 01:33:00
2 1958-05-09 12:00:00 Temperatura 8.2 del 09-05-1958 09:00, Menor que la Mínima 8.5 09-05-1958 12:00 8.2 -- 8.5 2013-05-08 01:34:00
2 1958-11-18 12:00:00 Temperatura 12.6 del 18-11-1958 12:00, Menor que la Mínima 12.7 18-11-1958 12:00 12.6 -- 12.7 2013-05-08 01:34:00
2 1959-02-06 12:00:00 Temperatura 12.7 del 06-02-1959 12:00, Menor que la Mínima 13.0 06-02-1959 12:00 12.7 -- 13.0 2013-05-08 01:34:00
2 1959-03-05 12:00:00 Temperatura 6.9 del 05-03-1959 12:00, Menor que la Mínima 8.0 05-03-1959 12:00 6.9 -- 8.0 2013-05-08 01:34:00
2 1959-05-17 12:00:00 Temperatura 5.8 del 17-05-1959 12:00, Menor que la Mínima 6.1 17-05-1959 12:00 5.8 -- 6.1 2013-05-08 01:34:00
2 1959-06-27 12:00:00 Temperatura 6.5 del 27-06-1959 12:00, Menor que la Mínima 6.6 27-06-1959 12:00 6.5 -- 6.6 2013-05-08 01:34:00
2 1959-07-14 12:00:00 Temperatura 10.6 del 14-07-1959 12:00, Menor que la Mínima 11.1 14-07-1959 12:00 10.6 -- 11.1 2013-05-08 01:34:00
2 1959-09-15 12:00:00 Temperatura 7.4 del 15-09-1959 09:00, Menor que la Mínima 8.6 15-09-1959 12:00 7.4 -- 8.6 2013-05-08 01:34:00
2 1959-11-27 12:00:00 Temperatura 9.2 del 27-11-1959 09:00, Menor que la Mínima 9.8 27-11-1959 12:00 9.2 -- 9.8 2013-05-08 01:34:00
2 1959-12-01 12:00:00 Temperatura 1.0 del 01-12-1959 09:00, Menor que la Mínima 8.2 01-12-1959 12:00 1.0 -- 8.2 2013-05-08 01:34:00
2 1960-05-09 12:00:00 Temperatura 0.5 del 09-05-1960 09:00, Menor que la Mínima 2.0 09-05-1960 12:00 0.5 -- 2.0 2013-05-08 01:34:00
2 1960-05-20 12:00:00 Temperatura 4.4 del 20-05-1960 12:00, Menor que la Mínima 5.2 20-05-1960 12:00 4.4 -- 5.2 2013-05-08 01:34:00
2 1960-05-28 12:00:00 Temperatura 5.4 del 28-05-1960 12:00, Menor que la Mínima 5.9 28-05-1960 12:00 5.4 -- 5.9 2013-05-08 01:34:00
2 1960-06-24 12:00:00 Temperatura 5.6 del 24-06-1960 12:00, Menor que la Mínima 5.7 24-06-1960 12:00 5.6 -- 5.7 2013-05-08 01:34:00
2 1960-08-13 12:00:00 Temperatura 8.0 del 13-08-1960 12:00, Menor que la Mínima 8.4 13-08-1960 12:00 8.0 -- 8.4 2013-05-08 01:34:00
2 1961-02-27 12:00:00 Temperatura 8.2 del 27-02-1961 12:00, Menor que la Mínima 26.2 27-02-1961 12:00 8.2 -- 26.2 2013-05-08 01:34:00
2 1961-03-18 12:00:00 Temperatura 13.6 del 18-03-1961 09:00, Menor que la Mínima 16.4 18-03-1961 12:00 13.6 -- 16.4 2013-05-08 01:34:00
2 1961-03-28 12:00:00 Temperatura 12.7 del 28-03-1961 12:00, Menor que la Mínima 22.0 28-03-1961 12:00 12.7 -- 22.0 2013-05-08 01:34:00
2 1961-06-17 12:00:00 Temperatura 0.7 del 17-06-1961 12:00, Menor que la Mínima 2.1 17-06-1961 12:00 0.7 -- 2.1 2013-05-08 01:35:00
2 1962-03-05 12:00:00 Temperatura 11.2 del 05-03-1962 09:00, Menor que la Mínima 13.0 05-03-1962 12:00 11.2 -- 13.0 2013-05-08 01:35:00
2 1962-05-08 12:00:00 Temperatura 12.8 del 08-05-1962 09:00, Menor que la Mínima 13.0 08-05-1962 12:00 12.8 -- 13.0 2013-05-08 01:35:00
2 1962-05-23 12:00:00 Temperatura 9.0 del 23-05-1962 09:00, Menor que la Mínima 10.0 23-05-1962 12:00 9.0 -- 10.0 2013-05-08 01:35:00
2 1962-08-12 12:00:00 Temperatura 5.6 del 12-08-1962 09:00, Menor que la Mínima 10.0 12-08-1962 12:00 5.6 -- 10.0 2013-05-08 01:35:00
2 1962-09-20 12:00:00 Temperatura 0.5 del 20-09-1962 09:00, Menor que la Mínima 2.0 20-09-1962 12:00 0.5 -- 2.0 2013-05-08 01:35:00
2 1963-01-03 12:00:00 Temperatura 10.9 del 03-01-1963 09:00, Menor que la Mínima 13.9 03-01-1963 12:00 10.9 -- 13.9 2013-05-08 01:35:00
2 1963-03-02 12:00:00 Temperatura 12.6 del 02-03-1963 12:00, Menor que la Mínima 13.0 02-03-1963 12:00 12.6 -- 13.0 2013-05-08 01:35:00
2 1963-03-19 12:00:00 Temperatura 0.0 del 19-03-1963 12:00, Menor que la Mínima 4.8 19-03-1963 12:00 0.0 -- 4.8 2013-05-08 01:35:00
2 1963-04-28 12:00:00 Temperatura 7.4 del 28-04-1963 12:00, Menor que la Mínima 8.0 28-04-1963 12:00 7.4 -- 8.0 2013-05-08 01:35:00
2 1963-06-23 12:00:00 Temperatura 5.2 del 23-06-1963 12:00, Menor que la Mínima 8.0 23-06-1963 12:00 5.2 -- 8.0 2013-05-08 01:35:00
2 1963-07-18 12:00:00 Temperatura 0.6 del 18-07-1963 09:00, Menor que la Mínima 4.4 18-07-1963 12:00 0.6 -- 4.4 2013-05-08 01:35:00
2 1965-03-16 12:00:00 Temperatura 8.6 del 16-03-1965 09:00, Menor que la Mínima 9.0 16-03-1965 12:00 8.6 -- 9.0 2013-05-08 01:35:00
2 1965-06-13 12:00:00 Temperatura 5.0 del 13-06-1965 12:00, Menor que la Mínima 6.3 13-06-1965 12:00 5.0 -- 6.3 2013-05-08 01:35:00
2 1965-07-16 12:00:00 Temperatura 4.0 del 16-07-1965 12:00, Menor que la Mínima 9.0 16-07-1965 12:00 4.0 -- 9.0 2013-05-08 01:35:00
2 1965-10-23 12:00:00 Temperatura 11.6 del 23-10-1965 09:00, Menor que la Mínima 14.0 23-10-1965 12:00 11.6 -- 14.0 2013-05-08 01:36:00
2 1965-11-16 12:00:00 Temperatura 11.5 del 16-11-1965 09:00, Menor que la Mínima 11.6 16-11-1965 12:00 11.5 -- 11.6 2013-05-08 01:36:00
2 1965-11-17 12:00:00 Temperatura 11.5 del 17-11-1965 09:00, Menor que la Mínima 11.6 17-11-1965 12:00 11.5 -- 11.6 2013-05-08 01:36:00
2 1966-03-29 12:00:00 Temperatura 10.8 del 29-03-1966 09:00, Menor que la Mínima 11.0 29-03-1966 12:00 10.8 -- 11.0 2013-05-08 01:36:00
2 1966-06-01 12:00:00 Temperatura 10.0 del 01-06-1966 09:00, Menor que la Mínima 11.0 01-06-1966 12:00 10.0 -- 11.0 2013-05-08 01:36:00
2 1966-06-18 12:00:00 Temperatura 7.6 del 18-06-1966 09:00, Menor que la Mínima 7.7 18-06-1966 12:00 7.6 -- 7.7 2013-05-08 01:36:00
2 1966-10-31 12:00:00 Temperatura 9.4 del 31-10-1966 09:00, Menor que la Mínima 10.0 31-10-1966 12:00 9.4 -- 10.0 2013-05-08 01:36:00
2 1967-02-09 12:00:00 Temperatura 11.6 del 09-02-1967 09:00, Menor que la Mínima 12.0 09-02-1967 12:00 11.6 -- 12.0 2013-05-08 01:36:00
2 1967-06-08 12:00:00 Temperatura 5.0 del 08-06-1967 12:00, Menor que la Mínima 8.8 08-06-1967 12:00 5.0 -- 8.8 2013-05-08 01:36:00
2 1967-07-16 12:00:00 Temperatura 11.0 del 16-07-1967 09:00, Menor que la Mínima 24.6 16-07-1967 12:00 11.0 -- 24.6 2013-05-08 01:36:00
2 1967-12-24 12:00:00 Temperatura 11.8 del 24-12-1967 09:00, Menor que la Mínima 12.0 24-12-1967 12:00 11.8 -- 12.0 2013-05-08 01:36:00
2 1968-01-08 12:00:00 Temperatura 10.9 del 08-01-1968 09:00, Menor que la Mínima 12.1 08-01-1968 12:00 10.9 -- 12.1 2013-05-08 01:36:00
2 1968-03-06 12:00:00 Temperatura 9.4 del 06-03-1968 09:00, Menor que la Mínima 11.0 06-03-1968 12:00 9.4 -- 11.0 2013-05-08 01:36:00
2 1968-04-14 12:00:00 Temperatura 9.5 del 14-04-1968 09:00, Menor que la Mínima 10.0 14-04-1968 12:00 9.5 -- 10.0 2013-05-08 01:36:00
2 1968-05-17 12:00:00 Temperatura 7.7 del 17-05-1968 09:00, Menor que la Mínima 8.0 17-05-1968 12:00 7.7 -- 8.0 2013-05-08 01:36:00
2 1968-10-06 12:00:00 Temperatura 0.6 del 06-10-1968 09:00, Menor que la Mínima 4.6 06-10-1968 12:00 0.6 -- 4.6 2013-05-08 01:36:00
2 1968-11-19 12:00:00 Temperatura 13.8 del 19-11-1968 12:00, Menor que la Mínima 14.0 19-11-1968 12:00 13.8 -- 14.0 2013-05-08 01:37:00
2 1968-12-10 12:00:00 Temperatura 11.9 del 10-12-1968 09:00, Menor que la Mínima 12.1 10-12-1968 12:00 11.9 -- 12.1 2013-05-08 01:37:00
2 1969-03-23 12:00:00 Temperatura 1.5 del 23-03-1969 09:00, Menor que la Mínima 12.4 23-03-1969 12:00 1.5 -- 12.4 2013-05-08 01:37:00
2 1969-07-19 12:00:00 Temperatura 9.0 del 19-07-1969 11:00, Menor que la Mínima 9.4 19-07-1969 12:00 9.0 -- 9.4 2013-05-08 01:37:00
2 1969-08-15 12:00:00 Temperatura 7.7 del 15-08-1969 11:00, Menor que la Mínima 8.0 15-08-1969 12:00 7.7 -- 8.0 2013-05-08 01:37:00
2 1969-09-05 12:00:00 Temperatura 0.9 del 05-09-1969 10:00, Menor que la Mínima 8.1 05-09-1969 12:00 0.9 -- 8.1 2013-05-08 01:37:00
2 1969-09-07 12:00:00 Temperatura 5.4 del 07-09-1969 09:00, Menor que la Mínima 5.6 07-09-1969 12:00 5.4 -- 5.6 2013-05-08 01:37:00
2 1969-10-26 12:00:00 Temperatura 0.3 del 26-10-1969 10:00, Menor que la Mínima 9.4 26-10-1969 12:00 0.3 -- 9.4 2013-05-08 01:37:00
2 1969-11-24 12:00:00 Temperatura 1.0 del 24-11-1969 09:00, Menor que la Mínima 9.2 24-11-1969 12:00 1.0 -- 9.2 2013-05-08 01:37:00
2 1969-12-22 12:00:00 Temperatura 10.8 del 22-12-1969 11:00, Menor que la Mínima 11.0 22-12-1969 12:00 10.8 -- 11.0 2013-05-08 01:37:00
2 1969-12-24 12:00:00 Temperatura 12.2 del 24-12-1969 09:00, Menor que la Mínima 12.4 24-12-1969 12:00 12.2 -- 12.4 2013-05-08 01:37:00
2 1970-01-23 12:00:00 Temperatura 12.1 del 23-01-1970 10:00, Menor que la Mínima 12.8 23-01-1970 12:00 12.1 -- 12.8 2013-05-08 01:37:00
2 1970-02-07 12:00:00 Temperatura 10.0 del 07-02-1970 10:00, Menor que la Mínima 10.1 07-02-1970 12:00 10.0 -- 10.1 2013-05-08 01:37:00
2 1970-04-09 12:00:00 Temperatura 11.8 del 09-04-1970 11:00, Menor que la Mínima 12.0 09-04-1970 12:00 11.8 -- 12.0 2013-05-08 01:37:00
2 1970-05-08 12:00:00 Temperatura 0.7 del 08-05-1970 12:00, Menor que la Mínima 4.6 08-05-1970 12:00 0.7 -- 4.6 2013-05-08 01:37:00
2 1970-07-11 12:00:00 Temperatura 0.9 del 11-07-1970 09:00, Menor que la Mínima 7.0 11-07-1970 12:00 0.9 -- 7.0 2013-05-08 01:37:00
2 1970-08-02 12:00:00 Temperatura 8.5 del 02-08-1970 10:00, Menor que la Mínima 9.0 02-08-1970 12:00 8.5 -- 9.0 2013-05-08 01:37:00
2 1970-08-03 12:00:00 Temperatura 0.7 del 03-08-1970 12:00, Menor que la Mínima 6.6 03-08-1970 12:00 0.7 -- 6.6 2013-05-08 01:37:00
2 1970-08-22 12:00:00 Temperatura 0.2 del 22-08-1970 12:00, Menor que la Mínima 2.1 22-08-1970 12:00 0.2 -- 2.1 2013-05-08 01:37:00
2 1970-09-04 12:00:00 Temperatura 10.0 del 04-09-1970 11:00, Menor que la Mínima 10.2 04-09-1970 12:00 10.0 -- 10.2 2013-05-08 01:37:00
2 1970-09-24 12:00:00 Temperatura 0.7 del 24-09-1970 09:00, Menor que la Mínima 4.4 24-09-1970 12:00 0.7 -- 4.4 2013-05-08 01:37:00
2 1970-09-29 12:00:00 Temperatura 0.7 del 29-09-1970 09:00, Menor que la Mínima 6.3 29-09-1970 12:00 0.7 -- 6.3 2013-05-08 01:37:00
2 1970-10-18 12:00:00 Temperatura 0.7 del 18-10-1970 09:00, Menor que la Mínima 6.1 18-10-1970 12:00 0.7 -- 6.1 2013-05-08 01:37:00
2 1970-11-10 12:00:00 Temperatura 1.7 del 10-11-1970 11:00, Menor que la Mínima 10.5 10-11-1970 12:00 1.7 -- 10.5 2013-05-08 01:37:00
2 1970-11-17 12:00:00 Temperatura 8.7 del 17-11-1970 10:00, Menor que la Mínima 9.0 17-11-1970 12:00 8.7 -- 9.0 2013-05-08 01:37:00
2 1970-12-10 12:00:00 Temperatura 9.8 del 10-12-1970 10:00, Menor que la Mínima 10.0 10-12-1970 12:00 9.8 -- 10.0 2013-05-08 01:37:00
2 1970-12-27 12:00:00 Temperatura 9.2 del 27-12-1970 10:00, Menor que la Mínima 9.4 27-12-1970 12:00 9.2 -- 9.4 2013-05-08 01:37:00
2 1971-01-01 12:00:00 Temperatura 9.2 del 01-01-1971 11:00, Menor que la Mínima 9.3 01-01-1971 12:00 9.2 -- 9.3 2013-05-08 01:37:00
2 1971-01-01 12:00:00 Temperatura 9.2 del 01-01-1971 11:00, Menor que la Mínima 9.3 01-01-1971 12:00 9.2 -- 9.3 2013-05-08 01:37:00
2 1971-02-11 12:00:00 Temperatura 9.5 del 11-02-1971 11:00, Menor que la Mínima 9.8 11-02-1971 12:00 9.5 -- 9.8 2013-05-08 01:37:00
2 1971-03-05 12:00:00 Temperatura 10.0 del 05-03-1971 10:00, Menor que la Mínima 10.1 05-03-1971 12:00 10.0 -- 10.1 2013-05-08 01:37:00
2 1971-06-13 12:00:00 Temperatura 0.3 del 13-06-1971 09:00, Menor que la Mínima 1.8 13-06-1971 12:00 0.3 -- 1.8 2013-05-08 01:37:00
2 1971-06-28 12:00:00 Temperatura 7.8 del 28-06-1971 11:00, Menor que la Mínima 8.0 28-06-1971 12:00 7.8 -- 8.0 2013-05-08 01:37:00
2 1971-08-11 12:00:00 Temperatura 8.0 del 11-08-1971 11:00, Menor que la Mínima 8.2 11-08-1971 12:00 8.0 -- 8.2 2013-05-08 01:37:00
2 1971-08-12 12:00:00 Temperatura 7.6 del 12-08-1971 11:00, Menor que la Mínima 8.0 12-08-1971 12:00 7.6 -- 8.0 2013-05-08 01:37:00
2 1971-10-14 12:00:00 Temperatura 9.8 del 14-10-1971 11:00, Menor que la Mínima 11.0 14-10-1971 12:00 9.8 -- 11.0 2013-05-08 01:38:00
2 1971-10-18 12:00:00 Temperatura 10.0 del 18-10-1971 09:00, Menor que la Mínima 11.0 18-10-1971 12:00 10.0 -- 11.0 2013-05-08 01:38:00
2 1972-01-19 12:00:00 Temperatura 11.0 del 19-01-1972 10:00, Menor que la Mínima 11.2 19-01-1972 12:00 11.0 -- 11.2 2013-05-08 01:38:00
2 1972-01-21 12:00:00 Temperatura 14.0 del 21-01-1972 09:00, Menor que la Mínima 14.2 21-01-1972 12:00 14.0 -- 14.2 2013-05-08 01:38:00
2 1972-03-09 12:00:00 Temperatura 8.0 del 09-03-1972 11:00, Menor que la Mínima 9.0 09-03-1972 12:00 8.0 -- 9.0 2013-05-08 01:38:00
2 1972-05-18 12:00:00 Temperatura 10.9 del 18-05-1972 11:00, Menor que la Mínima 11.0 18-05-1972 12:00 10.9 -- 11.0 2013-05-08 01:38:00
2 1972-08-04 12:00:00 Temperatura 7.7 del 04-08-1972 11:00, Menor que la Mínima 8.0 04-08-1972 12:00 7.7 -- 8.0 2013-05-08 01:38:00
2 1972-09-12 12:00:00 Temperatura 12.8 del 12-09-1972 11:00, Menor que la Mínima 13.6 12-09-1972 12:00 12.8 -- 13.6 2013-05-08 01:38:00
2 1972-09-17 12:00:00 Temperatura 11.8 del 17-09-1972 09:00, Menor que la Mínima 12.0 17-09-1972 12:00 11.8 -- 12.0 2013-05-08 01:38:00
2 1973-01-17 12:00:00 Temperatura 11.5 del 17-01-1973 11:00, Menor que la Mínima 12.8 17-01-1973 12:00 11.5 -- 12.8 2013-05-08 01:38:00
2 1973-04-25 12:00:00 Temperatura 6.8 del 25-04-1973 11:00, Menor que la Mínima 16.8 25-04-1973 12:00 6.8 -- 16.8 2013-05-08 01:38:00
2 1973-05-22 12:00:00 Temperatura 10.8 del 22-05-1973 11:00, Menor que la Mínima 11.3 22-05-1973 12:00 10.8 -- 11.3 2013-05-08 01:38:00
2 1973-11-16 12:00:00 Temperatura 7.0 del 16-11-1973 11:00, Menor que la Mínima 7.4 16-11-1973 12:00 7.0 -- 7.4 2013-05-08 01:38:00
2 1974-11-24 12:00:00 Temperatura 7.8 del 24-11-1974 11:00, Menor que la Mínima 8.6 24-11-1974 12:00 7.8 -- 8.6 2013-05-08 01:39:00
2 1974-11-25 12:00:00 Temperatura 6.6 del 25-11-1974 11:00, Menor que la Mínima 9.2 25-11-1974 12:00 6.6 -- 9.2 2013-05-08 01:39:00
2 1974-11-28 12:00:00 Temperatura 12.0 del 28-11-1974 11:00, Menor que la Mínima 12.2 28-11-1974 12:00 12.0 -- 12.2 2013-05-08 01:39:00
2 1974-11-30 12:00:00 Temperatura 12.7 del 30-11-1974 11:00, Menor que la Mínima 12.8 30-11-1974 12:00 12.7 -- 12.8 2013-05-08 01:39:00
2 1974-12-23 12:00:00 Temperatura 11.3 del 23-12-1974 11:00, Menor que la Mínima 11.6 23-12-1974 12:00 11.3 -- 11.6 2013-05-08 01:39:00
2 1975-01-08 12:00:00 Temperatura 10.2 del 08-01-1975 11:00, Menor que la Mínima 11.3 08-01-1975 12:00 10.2 -- 11.3 2013-05-08 01:39:00
2 1975-01-19 12:00:00 Temperatura 10.6 del 19-01-1975 11:00, Menor que la Mínima 11.0 19-01-1975 12:00 10.6 -- 11.0 2013-05-08 01:39:00
2 1975-02-09 12:00:00 Temperatura 13.0 del 09-02-1975 11:00, Menor que la Mínima 21.2 09-02-1975 12:00 13.0 -- 21.2 2013-05-08 01:39:00
2 1975-06-30 12:00:00 Temperatura 0.9 del 30-06-1975 12:00, Menor que la Mínima 6.3 30-06-1975 12:00 0.9 -- 6.3 2013-05-08 01:39:00
2 1975-09-18 12:00:00 Temperatura 10.4 del 18-09-1975 04:00, Menor que la Mínima 10.5 18-09-1975 12:00 10.4 -- 10.5 2013-05-08 01:39:00
2 1975-11-26 12:00:00 Temperatura 1.3 del 26-11-1975 12:00, Menor que la Mínima 9.6 26-11-1975 12:00 1.3 -- 9.6 2013-05-08 01:39:00
2 1976-03-19 12:00:00 Temperatura 0.9 del 19-03-1976 12:00, Menor que la Mínima 5.0 19-03-1976 12:00 0.9 -- 5.0 2013-05-08 01:39:00
2 1976-05-12 12:00:00 Temperatura 13.4 del 12-05-1976 12:00, Menor que la Mínima 13.5 12-05-1976 12:00 13.4 -- 13.5 2013-05-08 01:39:00
2 1976-06-24 12:00:00 Temperatura 4.2 del 24-06-1976 12:00, Menor que la Mínima 4.5 24-06-1976 12:00 4.2 -- 4.5 2013-05-08 01:39:00
2 1976-07-19 12:00:00 Temperatura 7.0 del 19-07-1976 12:00, Menor que la Mínima 7.5 19-07-1976 12:00 7.0 -- 7.5 2013-05-08 01:39:00
2 1976-08-30 12:00:00 Temperatura 6.9 del 30-08-1976 12:00, Menor que la Mínima 7.0 30-08-1976 12:00 6.9 -- 7.0 2013-05-08 01:39:00
2 1978-02-12 12:00:00 Temperatura 7.4 del 12-02-1978 11:00, Menor que la Mínima 9.0 12-02-1978 12:00 7.4 -- 9.0 2013-05-08 01:40:00
2 1978-11-03 12:00:00 Temperatura 9.8 del 03-11-1978 11:00, Menor que la Mínima 11.6 03-11-1978 12:00 9.8 -- 11.6 2013-05-08 01:40:00
2 1979-01-11 12:00:00 Temperatura 11.2 del 11-01-1979 12:00, Menor que la Mínima 12.4 11-01-1979 12:00 11.2 -- 12.4 2013-05-08 01:40:00
2 1979-02-18 12:00:00 Temperatura 7.6 del 18-02-1979 11:00, Menor que la Mínima 8.4 18-02-1979 12:00 7.6 -- 8.4 2013-05-08 01:40:00
2 1979-10-23 12:00:00 Temperatura 7.2 del 23-10-1979 11:00, Menor que la Mínima 7.3 23-10-1979 12:00 7.2 -- 7.3 2013-05-08 01:40:00
2 1981-01-14 12:00:00 Temperatura 13.0 del 14-01-1981 11:00, Menor que la Mínima 13.8 14-01-1981 12:00 13.0 -- 13.8 2013-05-08 01:41:00
2 1981-11-05 12:00:00 Temperatura 10.7 del 05-11-1981 11:00, Menor que la Mínima 12.6 05-11-1981 12:00 10.7 -- 12.6 2013-05-08 01:41:00
Errores del Nivel 620
Informe generado el 24-07-2024 13:21
Requerimiento: RE6001